GFSSGP_con_sbcape_057.txt.gz
CAPE
0 0 0 0 0 0 0 0 0 0 0 0 0 0 0 9 153 27 11 129 1 299 890 1288 1549 1303 1281 1878 2083 2179 2131 2130 2117 2085 1819 1276 972 380 61 26 0 0 0 0 0 0 0 0 0
0 0 0 0 0 0 0 0 0 0 0 0 0 0 0 130 82 0 461 61 42 233 622 653 1523 1409 1185 1431 1882 1986 2079 2150 2166 2024 1636 1176 867 398 60 13 0 0 0 0 0 0 0 0 0
0 0 0 0 0 0 0 0 0 0 0 2 0 0 0 129 33 0 409 54 80 195 282 714 1424 1397 1105 1094 1551 1743 1886 1996 2095 1970 1504 1092 766 523 210 60 28 0 0 0 0 0 0 0 0
0 0 0 0 0 0 0 0 0 0 3 44 0 0 59 68 25 28 843 159 111 76 319 1355 1351 1264 1177 915 942 1341 1577 1772 1926 1762 1405 1014 661 594 273 100 71 32 7 0 0 0 1 28 54
0 0 0 0 0 0 0 0 0 0 0 76 0 0 100 43 13 940 854 363 150 23 468 1136 1445 1331 1231 988 737 766 1051 1292 1503 1590 1272 1037 863 569 287 159 83 60 45 24 19 60 153 207 211
0 0 0 0 0 0 0 0 0 0 0 0 0 0 5 22 17 94 567 418 199 12 595 886 1506 1351 1165 1095 812 649 578 684 950 1114 1097 947 711 520 335 218 166 185 198 183 155 239 367 426 508
0 0 0 0 0 0 0 0 0 0 0 0 0 0 7 0 11 11 156 282 240 426 560 509 947 1243 1429 1139 851 726 615 536 546 683 752 702 658 544 439 308 291 330 350 329 301 414 542 641 713
0 0 0 0 0 0 0 0 0 0 0 0 0 0 25 15 0 3 53 0 314 923 703 557 475 880 875 830 1144 914 785 693 591 650 718 688 660 594 523 324 328 427 446 493 517 587 728 868 891
0 0 0 0 0 0 0 0 0 0 0 0 0 62 102 55 1 0 0 0 782 1182 798 604 434 479 464 482 819 1009 772 849 777 693 712 529 208 236 168 215 159 452 561 693 775 768 856 1014 1059
0 0 0 0 0 0 0 0 0 0 0 0 0 3 101 119 10 0 0 0 311 1367 1242 790 559 274 115 260 384 497 325 350 349 280 238 221 93 45 125 115 433 432 601 759 884 952 1050 997 682
0 0 0 0 0 0 0 0 0 0 0 0 0 0 74 121 109 80 0 0 14 1124 1520 1182 734 290 86 64 195 357 267 244 284 158 89 161 84 21 91 9 83 34 359 161 564 683 772 716 640
0 0 0 0 0 0 0 0 0 0 0 0 0 0 0 0 116 151 59 0 0 169 936 1369 793 260 55 39 250 243 137 121 146 176 58 101 65 13 0 0 0 0 43 92 74 267 414 560 458
0 0 0 0 0 0 0 0 0 0 0 0 0 0 0 0 3 69 74 43 4 35 185 588 865 455 154 156 365 374 286 181 118 107 77 55 90 24 0 0 0 0 0 70 7 25 146 353 457
0 0 0 0 0 0 0 0 0 0 0 0 0 0 0 0 0 0 0 23 15 2 9 86 124 1416 850 584 461 634 574 516 341 234 203 129 51 86 4 0 0 0 0 14 48 9 65 203 355
0 0 0 0 0 0 0 0 0 0 0 0 0 0 0 0 0 0 0 0 33 8 127 6 3 2 1801 1010 1029 1391 1354 704 877 622 500 279 94 93 74 49 0 7 0 0 54 27 22 228 323
0 0 0 0 0 0 0 0 0 0 0 0 0 0 1 0 0 0 0 0 7 5 2 468 247 1266 1784 1934 1628 1219 1186 1580 1281 798 940 685 320 125 273 138 110 8 26 26 15 59 67 120 482
0 0 0 0 0 0 0 0 0 0 0 0 0 0 0 0 0 0 0 0 147 2 0 0 612 2535 2509 2441 2094 1838 1575 1235 1069 1398 1093 1418 683 438 205 470 202 71 148 184 171 197 159 210 281
0 0 0 0 0 0 0 0 0 0 0 0 0 0 0 0 0 0 0 0 9 125 89 140 159 2160 2598 2547 2240 2156 2042 1976 1687 1438 1052 1167 1424 959 485 502 662 716 297 513 352 292 162 203 386
0 0 0 0 0 0 0 0 0 0 0 0 0 0 0 0 0 0 0 0 35 293 429 380 344 1268 1008 403 1343 1374 1462 940 857 701 809 1119 1854 1509 1299 959 919 743 844 483 544 498 352 444 199
0 0 0 0 0 0 0 0 0 0 0 0 0 0 0 0 0 0 0 0 3 94 94 148 99 232 327 199 105 107 150 195 159 91 493 1033 1706 1644 1295 1075 1120 1121 944 770 715 769 478 390 137
0 0 0 0 0 0 0 0 0 0 0 0 0 0 0 0 0 0 0 0 52 74 49 32 35 62 215 330 362 434 202 233 550 913 808 1522 1627 1515 1592 1101 995 1136 1016 977 818 774 328 282 100
0 0 0 0 0 0 0 0 0 0 0 0 0 0 0 0 0 0 0 0 145 137 52 11 8 24 116 134 216 349 344 431 221 845 1409 1621 1602 1546 1397 1229 1121 1330 1045 950 996 692 452 577 415
0 0 0 0 0 0 0 0 0 0 0 0 0 0 0 0 0 0 0 0 12 0 123 216 199 95 145 273 358 538 445 343 437 785 1427 1561 1447 1534 1439 1172 1182 1530 1129 1089 967 787 570 442 549
8 0 0 0 0 0 0 0 0 0 0 0 0 0 0 0 0 0 0 0 0 0 0 0 74 15 5 119 560 602 596 848 986 1486 1648 1505 1419 1300 1284 1175 1199 1576 1280 1229 910 912 793 732 493
0 0 0 0 0 0 0 7 0 0 0 0 0 0 0 0 0 0 0 0 0 0 0 0 0 0 55 201 472 758 468 532 842 1322 1708 1465 1312 1277 1254 1213 1328 1528 1400 1330 1102 1041 708 538 556
0 0 1 1 0 0 0 0 0 0 0 0 0 0 0 0 0 0 0 0 0 0 0 0 0 0 3 153 602 1097 725 1360 834 1992 1564 1307 1192 1186 1253 1317 1428 1483 1385 1021 839 599 684 654 487
0 0 3 2 0 2 0 0 0 0 3 25 0 0 0 0 0 0 0 0 0 0 0 0 0 0 207 790 1182 1288 773 1042 1814 1830 1323 1177 1076 1295 1343 1345 1502 1385 1115 846 727 658 657 476 308
24 10 0 5 23 0 0 0 25 77 37 3 0 0 0 0 0 14 0 0 2 172 293 368 37 1 606 672 689 1395 1663 1766 2310 1640 1329 1079 1156 1285 1258 1385 1470 1156 790 733 651 455 354 407 271
16 28 0 47 0 3 0 0 77 20 8 0 0 0 0 0 0 1 1 239 537 753 813 779 113 37 183 756 1608 1924 2181 2375 2261 1666 1580 1290 1321 1215 1518 1417 951 671 634 613 379 308 263 284 135
1 4 3 16 16 93 107 0 23 0 0 0 0 0 0 0 0 0 0 1127 1047 796 749 659 197 883 1553 1944 2024 2177 2279 2369 1958 1705 1760 1877 1632 1541 1197 791 653 690 650 378 216 259 374 92 45

GFSSGP_con_sbcape_060.txt.gz
CAPE
0 0 0 0 0 0 0 0 0 0 0 0 0 0 1 55 53 35 0 0 1 238 782 1051 1519 2079 2389 2365 2348 2195 2004 1963 2023 1862 1270 869 661 384 38 30 10 0 0 0 0 0 0 0 0
0 0 0 0 0 0 0 0 0 0 0 0 0 0 18 105 22 132 17 0 1 454 699 626 1296 1773 2205 2244 2221 2133 2066 2071 2105 2003 1424 1024 729 389 57 18 0 0 0 0 0 0 0 0 0
0 0 0 0 0 0 0 0 0 0 0 0 0 0 47 91 86 112 54 0 53 304 460 491 1272 1562 1998 2180 2122 2110 2130 2122 2179 2013 1567 1147 812 512 259 60 29 0 0 0 0 0 0 0 0
0 0 0 0 0 0 0 0 0 0 0 0 0 16 53 5 124 60 0 0 21 211 192 818 1261 1258 1710 2059 2075 2061 2119 2180 2201 2128 1760 1278 880 650 391 92 61 30 0 0 0 0 4 25 48
0 0 0 0 0 0 0 0 0 0 0 0 0 5 86 14 145 49 0 0 6 79 94 929 1275 1022 1459 1868 1961 2024 2080 2118 2168 2157 1860 1453 1248 754 336 158 51 35 29 25 26 30 83 134 144
0 0 0 0 0 0 0 0 0 0 0 0 0 5 56 112 330 26 0 0 0 6 229 674 1291 1019 995 1312 1634 1735 1799 1941 2030 2012 1828 1584 1312 922 493 291 198 193 230 210 163 180 278 405 500
0 0 0 0 0 0 0 0 0 0 0 0 0 0 0 136 471 115 0 0 0 31 383 600 806 930 1029 880 1024 1286 1404 1493 1595 1599 1558 1467 1263 948 674 491 365 357 426 412 425 370 522 592 597
0 0 0 0 0 0 0 0 0 0 0 0 0 14 3 0 181 219 69 0 5 186 207 584 673 695 509 456 984 889 853 944 1036 1164 1189 1127 1006 831 676 456 435 464 564 601 604 564 666 740 798
0 0 0 0 0 0 0 0 0 0 0 0 0 12 42 3 0 4 54 298 324 276 156 303 534 547 497 432 645 911 794 760 697 685 826 606 256 321 236 334 251 540 595 661 726 739 766 905 906
0 0 0 0 0 0 0 0 0 0 0 0 0 0 1 3 22 23 129 372 460 457 402 143 343 422 338 474 496 417 284 325 253 218 237 141 61 68 159 234 403 465 604 692 799 930 922 646 520
0 0 0 0 0 0 0 0 0 0 0 0 0 0 0 0 0 2 15 378 634 681 556 323 95 186 182 168 331 303 203 176 140 106 73 78 19 38 156 52 156 170 295 147 431 601 644 470 435
0 0 0 0 0 0 0 0 0 0 0 0 0 0 0 0 0 0 0 205 527 838 776 452 142 13 2 5 181 196 153 148 132 67 7 18 3 0 0 9 9 50 10 50 27 174 313 423 439
0 0 0 0 0 0 0 0 0 0 0 0 0 0 0 0 0 0 0 0 0 593 966 768 326 47 0 0 18 75 45 46 26 29 1 0 0 0 0 0 0 0 0 0 0 29 109 265 363
0 0 0 0 0 0 0 0 0 0 0 0 0 0 0 0 0 0 10 0 0 51 1113 763 392 121 1 0 44 68 47 17 0 5 12 3 0 0 0 0 0 0 0 0 0 0 0 47 165
0 0 0 0 0 0 0 0 0 0 0 0 0 0 0 0 0 0 0 6 2 58 232 793 650 260 39 18 179 218 163 163 102 70 49 27 0 3 0 0 0 0 0 0 0 0 0 10 68
0 0 0 0 0 0 0 0 0 0 0 0 0 0 0 0 0 0 0 0 0 5 134 238 763 299 426 308 322 416 376 366 339 241 188 138 82 16 23 0 0 0 0 0 0 0 0 2 35
0 0 0 0 0 0 0 0 0 0 0 0 0 0 0 0 0 0 0 0 6 10 27 166 39 73 661 1145 776 757 850 739 620 526 490 426 256 122 80 84 36 0 0 0 0 0 0 1 36
0 0 0 0 0 0 0 0 0 0 0 0 0 0 0 0 0 0 0 0 0 11 15 151 151 256 242 687 1305 1258 1116 935 648 839 728 746 644 345 110 230 89 39 0 0 0 0 0 17 25
0 0 0 0 0 0 0 0 0 0 0 0 0 0 0 0 0 0 0 0 0 8 1 0 10 433 1202 1713 1601 1562 1517 1398 1221 857 671 659 1138 763 255 175 242 146 85 25 40 9 11 32 8
0 0 0 0 0 0 0 0 0 0 0 0 0 0 0 0 0 0 0 0 0 3 53 19 21 1044 1893 1511 1589 1213 1412 775 944 966 780 622 931 1172 783 415 395 365 393 133 144 220 113 30 0
0 0 0 0 0 0 0 0 0 0 0 0 0 0 0 0 0 0 0 0 0 0 136 148 84 1004 1729 1438 904 0 0 36 139 138 114 133 558 1432 1126 744 677 504 490 397 239 272 241 147 6
0 0 0 0 0 0 0 0 0 0 0 0 0 0 0 0 0 0 0 0 0 0 40 155 119 502 689 120 111 79 1 14 28 8 326 352 1031 1382 1193 884 700 674 546 496 418 311 68 43 125
0 0 0 0 0 0 0 0 0 0 0 0 0 0 0 0 0 0 0 0 0 0 0 6 30 7 63 28 0 4 0 0 0 144 437 772 1045 1275 1222 845 625 783 678 555 556 323 214 298 170
0 0 0 0 0 0 0 0 0 0 0 0 0 0 0 0 0 0 0 0 0 0 28 39 11 11 9 4 0 0 0 0 40 162 438 760 894 917 1040 863 819 914 793 729 606 389 168 186 197
0 0 0 0 0 0 0 0 0 0 0 0 0 0 0 0 0 0 0 0 0 0 0 17 13 0 0 0 0 3 12 0 47 289 752 971 874 858 872 765 774 972 951 801 575 611 407 302 199
0 0 0 23 0 0 0 0 0 0 0 0 0 0 0 0 0 0 0 0 0 0 0 0 0 0 0 0 0 36 48 5 81 277 1097 1178 1135 1002 738 818 735 875 1066 727 718 601 358 166 139
0 0 0 14 0 0 0 0 0 5 0 0 0 0 0 0 0 0 0 0 0 0 0 0 0 0 0 0 0 29 153 130 155 743 1059 982 931 877 792 748 809 881 787 635 545 443 366 177 82
0 0 2 0 1 0 0 0 0 19 0 0 0 0 0 0 0 0 0 0 0 0 0 0 0 0 0 0 0 147 364 335 674 965 999 876 771 1009 652 728 856 749 665 375 303 231 174 123 13
0 0 2 0 9 2 27 0 0 0 0 0 0 0 0 0 0 0 0 0 0 193 127 177 99 0 0 111 247 668 613 727 1278 1149 897 823 846 753 798 827 774 756 521 263 213 134 62 95 0
0 0 0 0 0 11 20 0 1 0 0 0 0 0 0 0 0 0 0 0 0 411 434 363 183 5 43 327 646 1142 1245 1445 1588 1207 907 759 738 834 918 926 829 656 510 162 77 62 53 60 0

GFSSGP_con_sbcape_063.txt.gz
CAPE
0 0 0 0 0 0 0 0 0 0 0 0 0 0 0 0 49 10 0 0 45 11 495 1648 2336 2420 2327 2200 2091 1890 1728 1780 1728 1486 1224 975 897 422 88 72 9 0 0 0 0 0 0 0 0
0 0 0 0 0 0 0 0 0 0 0 0 0 0 0 16 0 10 4 4 9 58 343 920 2219 2331 2358 2209 2003 1811 1781 1883 1874 1645 1180 892 781 478 13 14 0 0 0 0 0 0 0 0 0
0 0 0 0 0 0 0 0 0 0 0 0 0 0 0 25 11 3 5 0 4 91 255 577 1984 2197 2321 2233 1988 1820 1797 1892 1928 1766 1400 1029 775 585 207 82 28 0 0 0 0 0 0 5 7
0 0 0 0 0 0 0 0 0 0 0 0 0 0 0 0 110 35 0 0 21 127 182 981 1667 1940 2136 2201 2032 1876 1898 1938 1975 1872 1576 1187 904 608 347 140 98 16 0 0 0 0 9 16 39
0 0 0 0 0 0 0 0 0 0 0 0 0 0 1 0 97 12 0 7 7 111 111 710 1420 1789 2010 2125 2059 1945 1966 1979 2010 2064 1701 1317 1215 756 376 186 65 30 9 5 2 8 53 84 88
0 0 0 0 0 0 0 0 0 0 0 0 0 0 7 172 69 4 0 0 3 53 94 340 1205 1521 1687 1933 1980 1934 1931 1976 2046 2085 1922 1686 1428 930 492 305 179 160 189 118 74 136 178 242 264
0 0 0 0 0 0 0 0 0 0 0 0 0 0 0 280 138 0 0 0 0 3 123 254 478 889 1587 1722 1836 1914 1946 2008 2002 1924 1812 1710 1550 1221 859 524 360 314 434 448 432 374 372 438 327
0 0 0 0 0 0 0 0 0 0 0 0 0 0 2 6 105 0 0 0 0 0 68 176 309 421 555 990 1835 1926 1964 2046 1930 1878 1795 1673 1566 1321 1021 577 501 426 553 638 652 604 580 641 649
0 0 0 0 0 0 0 0 0 0 0 0 0 0 0 165 88 10 5 45 33 16 91 248 313 350 262 182 880 1638 1802 1870 1845 1796 1725 1353 931 765 438 387 273 521 556 716 758 779 717 794 664
0 0 0 0 0 0 0 0 0 0 0 0 0 0 0 19 28 36 11 1 14 6 79 251 293 323 253 196 213 422 445 731 809 777 843 456 159 115 168 268 316 473 642 706 801 866 791 477 321
0 0 0 0 0 0 0 0 0 0 0 0 0 0 0 0 0 2 24 23 3 15 58 136 229 230 216 136 181 259 157 161 144 115 125 106 23 27 177 84 207 161 387 175 404 500 535 236 195
0 0 0 0 0 0 0 0 0 0 0 0 0 0 0 0 0 0 0 0 161 36 47 22 114 141 127 31 169 144 89 77 83 37 28 26 0 0 5 11 7 78 23 62 25 112 214 242 179
0 0 0 0 0 0 0 0 0 0 0 0 0 0 0 0 0 0 0 0 55 291 284 133 2 22 38 2 52 53 34 40 39 13 4 1 0 0 0 0 0 1 0 0 0 0 49 131 182
0 0 0 0 0 0 0 0 0 0 0 0 0 0 0 0 0 0 0 0 0 203 673 520 155 2 0 0 0 7 2 0 2 6 1 0 0 0 0 0 0 0 0 0 0 0 0 40 97
0 0 0 0 0 0 0 0 0 0 0 0 0 0 0 0 0 0 0 6 3 1 561 809 466 117 0 0 0 0 0 0 0 0 0 0 0 0 0 0 0 0 0 0 0 0 0 0 1
0 0 0 0 0 0 0 0 0 0 0 0 0 0 0 0 0 0 0 0 5 2 313 935 939 345 66 0 0 2 5 3 1 0 0 0 0 0 0 0 0 0 0 0 0 0 0 0 0
0 0 0 0 0 0 0 0 0 0 0 0 0 0 0 0 0 0 0 0 0 1 30 353 796 499 217 72 9 47 107 114 133 79 60 71 78 24 6 0 0 0 0 0 0 0 0 0 0
0 0 0 0 0 0 0 0 0 0 0 0 0 0 0 0 0 0 0 0 0 0 13 48 383 562 424 300 260 256 364 370 292 320 325 298 233 170 27 26 0 0 0 0 0 0 0 0 0
0 0 0 0 0 0 0 0 0 0 0 0 0 0 0 0 0 0 0 0 0 0 0 6 73 102 274 699 718 674 705 776 683 663 628 529 471 290 83 90 27 0 0 5 0 0 0 0 0
0 0 0 0 0 0 0 0 0 0 0 0 0 0 0 0 0 0 0 0 0 0 0 0 25 85 89 249 709 685 808 738 964 976 609 598 638 536 244 145 116 48 47 3 17 2 0 0 0
0 0 0 0 0 0 0 0 0 0 0 0 0 0 0 0 0 0 0 0 0 0 0 0 0 0 42 425 324 23 90 75 288 328 526 526 526 761 719 302 156 146 163 50 34 25 29 15 0
0 0 0 0 0 0 0 0 0 0 0 0 0 0 0 0 0 0 0 0 0 0 0 0 0 0 0 467 689 525 494 806 357 409 248 353 198 378 895 635 289 266 289 199 90 44 39 16 75
0 0 0 0 0 0 0 0 0 0 0 0 0 0 0 0 0 0 0 0 0 0 0 0 0 0 47 609 853 650 39 89 0 0 104 101 119 388 846 683 532 400 304 287 250 99 33 70 95
0 0 0 0 0 0 0 0 0 0 0 0 0 0 0 0 0 0 0 0 0 0 0 0 0 0 36 331 357 279 288 0 2 6 31 40 237 521 823 603 507 520 444 379 297 167 84 61 50
0 0 0 0 0 0 0 0 0 0 0 0 0 0 0 0 0 0 0 0 0 0 0 0 0 0 1 41 66 4 23 4 5 0 0 113 344 529 605 583 533 541 508 441 389 219 80 78 19
0 0 0 0 0 0 0 0 0 0 0 0 0 0 0 0 0 0 0 0 0 0 0 0 0 0 0 0 25 9 0 0 0 0 20 152 532 680 601 629 612 662 576 473 324 304 131 119 6
0 0 0 0 0 0 0 0 0 0 0 0 0 0 0 0 0 0 0 0 0 0 0 0 0 0 0 0 0 0 0 0 0 0 207 440 707 702 602 608 609 602 660 457 316 294 295 51 0
0 0 0 0 1 0 0 0 0 0 0 0 0 0 0 0 0 0 0 0 0 0 0 0 0 0 0 0 0 0 0 0 0 118 492 666 617 713 580 575 511 506 529 450 317 241 78 0 0
0 0 0 0 0 0 0 0 0 0 0 0 0 0 0 0 0 0 0 0 0 0 0 0 0 0 0 0 0 0 35 75 174 363 618 666 643 636 627 643 468 495 477 320 218 107 7 15 0
0 0 0 0 0 1 25 0 0 0 0 0 0 0 0 0 0 0 0 0 0 0 0 0 26 0 0 0 0 0 99 341 614 681 671 561 712 638 662 567 531 602 464 196 114 80 33 2 0

GFSSGP_con_sbcape_069.txt.gz
CAPE
0 0 0 0 0 0 0 0 0 0 0 0 0 0 0 0 0 0 34 91 0 107 1459 1784 2043 2123 1941 1560 1356 1379 1565 1859 2069 2165 2128 2014 1914 1791 1492 1230 652 131 24 0 0 0 0 0 0
0 0 0 0 0 0 0 0 0 0 0 0 0 0 0 0 0 0 6 19 0 436 1986 1774 1989 2114 2037 1695 1384 1226 1248 1393 1590 1743 1753 1669 1492 1345 1023 641 176 5 0 0 0 0 0 0 0
0 0 0 0 0 0 0 0 0 0 0 0 0 0 0 0 33 0 30 0 0 378 1221 1882 2206 2102 2089 1883 1578 1340 1223 1235 1290 1341 1342 1239 1124 985 719 433 216 34 0 0 0 0 0 0 0
0 0 0 0 0 0 0 0 0 0 0 0 0 0 0 70 58 120 7 0 3 203 776 2016 2139 2162 2101 1971 1719 1537 1497 1451 1358 1337 1261 1199 1066 836 536 330 259 110 0 0 0 0 1 0 0
0 0 0 0 0 0 0 0 0 0 0 0 0 0 0 0 138 62 33 0 1 143 480 1703 2138 2220 2200 2079 1825 1673 1651 1536 1501 1499 1414 1253 1063 772 465 432 342 200 162 44 7 22 82 79 19
0 0 0 0 0 0 0 0 0 0 0 0 0 0 0 0 108 55 20 0 1 192 490 1130 2067 2176 2150 2045 1860 1688 1606 1601 1565 1551 1495 1371 1097 781 510 534 439 328 293 231 145 107 143 177 106
0 0 0 0 0 0 0 0 0 0 0 0 0 0 0 0 37 27 20 0 0 151 376 1107 1421 2063 2158 2115 1902 1793 1702 1699 1628 1558 1464 1411 1236 897 613 496 470 444 381 323 280 221 191 220 136
0 0 0 0 0 0 0 0 0 0 0 0 0 0 0 0 63 38 52 12 0 74 128 817 1154 1156 1398 1524 2102 1963 1873 1817 1792 1687 1588 1476 1344 1061 767 390 409 497 520 475 434 369 295 277 303
0 0 0 0 0 0 0 0 0 0 0 0 0 0 0 0 117 42 58 40 3 15 165 360 746 928 1022 987 1543 1914 1797 1809 1891 1849 1743 1367 796 787 602 260 353 516 650 654 629 621 476 412 208
0 0 0 0 0 0 0 0 0 0 0 0 0 0 0 0 25 95 63 36 27 0 86 263 567 858 953 852 1238 1412 1390 1459 1437 1343 1377 1252 913 899 470 479 351 609 598 716 784 805 595 218 46
0 0 0 0 0 0 0 0 0 0 0 0 0 0 0 0 0 0 21 65 0 0 33 238 527 717 665 441 871 1195 1298 1381 1524 1496 1612 1418 1096 896 733 429 454 299 356 80 226 214 88 35 64
0 0 0 0 0 0 0 0 0 0 0 0 0 0 0 0 0 0 0 48 44 4 12 149 401 560 620 459 484 649 861 1224 1225 1076 1359 1335 985 751 560 399 256 337 114 112 128 96 88 113 96
0 0 0 0 0 0 0 0 0 0 0 0 0 0 0 0 0 0 0 0 12 80 65 143 328 616 545 605 339 462 744 712 745 860 988 898 642 549 426 329 203 98 94 92 109 96 137 125 132
0 0 0 0 0 0 0 0 0 0 0 0 0 0 0 0 0 0 0 0 104 0 105 72 316 696 532 629 575 429 439 363 373 388 470 624 466 417 202 204 103 60 51 59 90 84 79 103 57
0 0 0 0 0 0 0 0 0 0 0 0 0 0 0 0 0 0 0 0 0 0 0 239 291 356 508 385 551 382 268 183 164 145 223 235 268 254 141 71 57 52 79 138 132 103 88 66 74
0 0 0 0 0 0 0 0 0 0 0 0 0 0 0 0 0 0 0 0 0 0 0 0 313 239 522 259 216 271 266 164 105 101 115 139 171 135 116 61 68 18 66 69 69 68 50 67 88
0 0 0 0 0 0 0 0 0 0 0 0 0 0 0 0 0 0 0 0 0 0 0 0 88 1027 585 329 214 147 197 209 112 73 65 113 137 98 154 155 0 10 11 34 64 105 102 155 208
0 0 0 0 0 0 0 0 0 0 0 0 0 0 0 0 0 0 0 0 0 0 0 0 0 928 1489 793 255 68 57 55 103 124 96 99 117 61 74 35 3 15 16 41 73 262 262 265 383
0 0 0 0 0 0 0 0 0 0 0 0 0 0 0 0 0 0 0 0 0 0 0 0 0 0 887 1082 795 470 185 177 96 220 183 155 160 33 21 0 0 27 29 157 377 387 457 320 273
0 0 0 0 0 0 0 0 0 0 0 0 0 0 0 0 0 0 0 0 0 0 0 0 0 0 1 573 1060 946 924 692 517 373 505 356 313 487 595 82 32 84 226 677 625 483 493 455 318
0 0 0 0 0 0 0 0 0 0 0 0 0 0 0 0 0 0 0 0 0 0 0 0 0 0 0 0 474 1157 1131 1143 1062 960 803 924 549 552 523 195 284 804 830 868 850 674 652 682 372
0 0 0 0 0 0 0 0 0 0 0 0 0 0 0 0 0 0 0 0 0 0 0 0 0 0 0 0 15 1050 695 919 1214 1489 1357 1558 1232 1286 657 573 745 1177 990 1362 1064 757 710 907 1021
0 0 0 0 0 0 0 0 0 0 0 0 0 0 0 0 0 0 0 0 0 0 0 0 0 0 0 0 0 41 757 956 1313 1565 2445 2373 2133 1656 1163 1380 1314 1418 1309 1717 1157 712 602 728 1252
0 0 0 0 0 0 0 0 0 0 0 0 0 0 0 0 0 0 0 0 0 0 0 0 0 0 0 0 0 23 284 1052 975 1467 1484 1763 1699 1932 2220 1971 2071 1712 1676 1517 1169 1011 897 1037 1253
0 0 0 0 0 0 0 0 0 0 0 0 0 0 0 0 0 0 0 0 0 0 0 0 0 0 0 0 0 0 93 467 1264 1622 1082 1353 1253 1562 2130 2352 2157 1771 1780 1360 1327 1200 1208 1171 1328
0 0 0 0 0 0 0 0 0 0 0 0 0 0 0 0 0 0 0 0 0 0 0 0 0 0 0 0 0 0 0 109 421 972 1090 924 891 1398 2379 2078 1750 1588 1482 1391 1369 1330 1495 1412 1240
0 0 0 0 0 0 0 0 0 0 0 0 0 0 0 0 0 0 0 0 0 0 0 0 0 0 0 0 0 0 0 34 184 946 1103 746 897 1375 1568 1533 1668 1674 1713 1639 1682 1795 1886 1540 1161
0 0 0 0 0 0 0 0 0 0 0 0 0 0 0 0 0 0 0 0 0 0 0 0 0 1 1 0 0 0 0 6 447 891 943 661 886 1562 1219 1498 1814 1870 1888 2014 2124 2085 1906 1722 1143
0 0 0 3 2 2 0 0 0 0 0 0 0 0 0 0 0 1 0 0 0 0 0 0 0 1 1 11 147 86 0 5 467 749 793 841 1234 1366 1144 1462 1831 1898 2192 2227 2225 2106 1726 1373 511
0 4 21 36 11 14 10 0 0 0 0 0 0 0 0 0 0 0 0 0 0 0 0 0 0 0 0 2 7 212 9 5 567 753 573 717 1136 1159 1089 1510 1692 1969 2261 2125 2065 1913 1472 1031 368

GFSSGP_con_sbcape_072.txt.gz
CAPE
0 0 0 0 0 0 0 0 0 0 0 0 0 0 0 0 0 8 277 228 49 146 1241 1620 2017 1990 1959 2257 2388 2341 2250 2300 2306 2228 2140 2146 2138 2032 1819 1424 821 537 77 0 0 0 0 0 0
0 0 0 0 0 0 0 0 0 0 0 0 0 0 0 0 0 0 0 254 12 287 1235 1072 1908 1946 1802 1921 2100 2124 2221 2318 2361 2321 2242 2152 2022 1833 1434 1009 554 124 0 0 0 0 0 0 0
0 0 0 0 0 0 0 0 0 0 0 0 0 0 0 0 0 12 145 156 39 532 939 996 1897 1936 1883 1615 1724 1839 2047 2175 2254 2302 2222 2080 1845 1624 1313 996 603 73 0 0 0 0 0 0 0
0 0 0 0 0 0 0 0 0 0 0 0 0 0 0 0 0 120 209 129 42 428 770 1919 1852 1969 1995 1753 1477 1510 1731 1917 2053 2106 2021 1814 1515 1262 1002 758 458 230 0 0 0 0 0 0 0
0 0 0 0 0 0 0 0 0 0 0 0 0 0 0 0 6 205 239 153 58 278 429 2159 1942 2047 2098 1983 1688 1367 1382 1480 1608 1719 1634 1428 1187 1016 812 587 492 328 156 69 5 8 71 67 4
0 0 0 0 0 0 0 0 0 0 0 0 0 0 0 0 4 204 206 185 56 146 379 1700 2139 2085 2100 2014 1827 1553 1401 1360 1358 1384 1349 1311 1129 926 693 571 542 409 339 301 182 158 173 191 122
0 0 0 0 0 0 0 0 0 0 0 0 0 0 0 0 0 145 189 114 64 108 346 1254 1782 2086 2134 2073 1834 1679 1565 1494 1437 1361 1341 1295 1096 823 574 568 559 480 442 402 326 262 240 221 110
0 0 0 0 0 0 0 0 0 0 0 0 0 0 0 0 0 84 220 92 67 142 243 822 1139 1335 1527 1548 2021 1800 1703 1607 1528 1527 1478 1379 1193 884 586 491 493 574 571 527 446 376 296 263 213
0 0 0 0 0 0 0 0 0 0 0 0 0 0 0 0 0 0 164 166 62 79 185 401 514 706 912 725 1395 1824 1745 1814 1808 1602 1615 1047 215 382 242 102 355 568 676 629 589 481 390 244 103
0 0 0 0 0 1 0 0 0 0 0 0 0 0 0 0 0 0 1 252 82 47 76 209 354 500 596 339 791 1301 1139 1217 930 683 724 620 228 337 189 271 487 554 674 760 693 704 464 146 0
0 0 0 0 0 0 0 0 0 0 0 0 0 0 0 0 0 0 0 16 158 35 35 140 546 733 630 348 467 902 700 796 844 914 1038 1028 533 633 553 333 503 228 269 54 189 152 91 16 18
0 0 0 0 0 0 0 0 0 0 0 0 0 0 0 0 0 0 0 0 21 120 24 66 416 1006 1221 634 575 675 530 709 821 1057 1596 1511 1266 977 624 270 205 249 114 100 70 56 74 59 59
0 0 0 0 0 0 0 0 0 0 0 0 0 0 0 0 0 0 0 0 0 68 167 73 234 756 1087 1208 537 732 963 696 921 926 1623 1435 1054 777 566 358 231 117 99 50 67 57 44 80 81
0 0 0 0 0 0 0 0 0 0 0 0 0 0 0 0 0 0 0 0 20 17 11 88 253 782 864 1351 1365 738 836 719 777 718 752 1323 910 800 442 420 253 82 27 24 25 29 55 103 57
0 0 0 0 0 0 0 0 0 0 0 0 0 0 0 0 0 0 0 0 0 0 0 21 228 557 1146 763 811 994 467 470 343 370 558 832 1131 769 552 226 122 15 39 105 115 109 129 167 127
0 0 0 0 0 0 0 0 0 0 0 0 0 0 0 0 0 0 0 0 0 0 0 0 84 325 1047 1424 1129 546 298 263 208 307 429 867 723 616 541 93 65 13 51 74 94 204 250 280 387
0 0 0 0 0 0 0 0 0 0 0 0 0 0 0 0 0 0 0 0 0 0 0 0 1 245 829 1156 964 917 957 425 195 135 171 447 382 326 381 72 89 226 3 129 234 385 521 510 887
0 0 0 0 0 0 0 0 0 0 0 0 0 0 0 0 0 0 0 0 0 0 1 0 0 38 1339 1174 1252 828 488 422 279 136 137 244 324 266 423 174 456 259 256 384 364 1092 662 1055 1147
0 0 0 0 0 0 0 0 0 0 0 0 0 0 0 0 0 0 0 0 0 0 0 0 0 21 278 1217 492 949 933 1195 645 407 314 354 385 321 808 167 517 638 361 384 860 1097 1309 1461 1433
0 0 0 0 0 0 0 0 0 0 0 0 0 0 0 0 0 0 0 0 0 0 0 0 0 0 2 87 1519 1619 1485 1170 1422 875 816 741 441 788 943 971 894 814 358 1022 996 1505 1427 1647 1693
0 0 0 0 0 0 0 0 0 0 0 0 0 0 0 0 0 0 0 0 0 0 0 0 0 0 0 0 70 601 1033 1444 1501 1920 1401 1323 770 1042 1420 1273 1107 961 1117 1056 1574 1755 1958 1639 1710
0 0 0 0 0 0 0 0 0 0 0 0 0 0 0 0 0 0 0 0 0 0 0 0 0 0 0 0 0 172 301 1056 1074 1440 1547 1846 1366 1032 1153 1938 1066 1554 993 1999 1957 2063 2360 2109 2034
0 0 0 0 0 0 0 0 0 0 0 0 0 0 0 0 0 0 0 0 0 0 0 0 0 0 0 0 0 0 209 45 144 596 2472 3341 2999 1754 1187 2126 2216 2449 1732 2287 2387 2512 2502 2113 1946
0 0 3 3 0 0 0 0 0 0 0 0 0 0 0 0 0 0 0 0 0 0 0 0 0 0 0 0 0 0 2 147 121 262 837 1596 2405 2474 2588 2136 2647 2669 2663 2507 2819 3032 2399 2136 2124
0 18 35 17 20 0 0 0 0 0 0 0 0 0 0 0 0 0 0 0 0 0 0 0 0 0 0 0 0 0 0 19 214 449 145 1079 1389 2162 3458 3558 3405 2838 3318 2899 2869 2703 2366 2238 2267
45 46 61 27 17 8 0 0 0 0 0 0 0 0 0 0 0 0 0 0 0 0 0 0 0 0 0 0 0 0 1 0 6 189 159 173 677 1394 3216 3376 3613 3003 2960 2895 2816 2524 2206 2600 2285
27 44 41 38 22 11 0 0 0 0 0 0 0 0 0 0 0 0 0 0 0 0 0 0 0 0 0 0 24 64 37 26 38 227 887 305 1331 1340 2071 2636 3189 3196 2901 2787 2934 2104 2355 2897 2844
15 43 54 47 15 10 8 19 39 0 2 4 1 0 0 0 0 0 0 0 0 0 0 0 0 0 0 0 0 3 103 122 134 428 467 916 1530 2119 1926 2993 3462 3056 2763 2575 2972 2520 2806 2942 2870
50 49 44 67 87 96 57 55 44 0 10 11 0 2 5 0 0 0 0 0 0 0 0 0 0 0 0 0 0 0 0 52 294 476 416 1139 2036 1507 1558 2251 2573 2527 2287 2448 3005 3273 2987 2993 2856
74 88 62 402 80 99 117 18 34 38 3 3 16 23 13 1 0 0 0 0 0 4 0 0 0 0 0 5 0 0 2 2 43 578 600 753 1101 1128 1297 1808 2149 2027 1999 2635 3052 3130 2776 2829 2622

GFSSGP_con_sbcape_075.txt.gz
CAPE
0 0 0 0 0 0 0 0 0 0 0 0 0 0 0 0 0 32 70 44 16 784 565 1326 2076 2382 2600 2715 2532 2296 2148 2079 2069 2055 2037 2172 2154 2092 1844 1654 1130 663 255 37 0 0 0 0 0
0 0 0 0 0 0 0 0 0 0 0 0 0 0 0 0 0 0 45 104 8 1025 737 651 1956 2176 2498 2613 2488 2341 2264 2224 2176 2152 2194 2268 2200 2058 1698 1269 758 289 44 0 0 0 0 0 0
0 0 0 0 0 0 0 0 0 0 0 0 0 0 0 0 0 0 31 308 10 940 815 669 1893 1980 2304 2427 2413 2292 2319 2346 2352 2325 2310 2268 2158 1904 1585 1228 806 129 0 0 0 0 0 0 0
0 0 0 0 0 0 0 1 0 0 0 0 0 0 0 0 0 44 196 304 124 496 846 1434 1758 1882 2083 2197 2232 2249 2354 2395 2439 2447 2334 2230 2032 1732 1381 1115 762 254 0 0 0 0 0 0 0
0 0 0 0 0 0 3 1 0 0 0 0 0 0 0 0 0 60 360 353 238 365 700 1627 1729 1781 1963 2001 1903 2036 2232 2267 2352 2435 2349 2157 1848 1450 1128 898 527 264 117 16 0 0 7 6 0
0 0 0 0 0 0 0 0 0 0 0 0 0 0 0 0 0 81 407 414 256 382 675 1873 1533 1716 1699 1800 1667 1631 1718 1886 2054 2116 2052 1821 1435 1131 898 705 569 466 297 181 78 70 46 68 28
0 0 0 0 0 1 0 0 0 0 0 0 0 0 0 1 0 51 355 276 260 376 522 1999 1054 1518 1772 1838 1746 1558 1444 1396 1422 1459 1429 1362 1196 972 744 595 585 507 421 399 317 239 126 77 50
0 0 0 0 0 0 3 0 0 0 0 3 0 0 1 0 0 0 182 211 208 264 352 1583 845 1022 1012 1029 1966 1780 1652 1560 1415 1353 1355 1308 1165 834 643 466 482 524 540 506 469 374 209 116 86
0 0 0 0 0 0 1 7 0 0 0 8 1 0 0 0 0 0 10 376 186 222 324 898 613 759 746 536 1225 1674 1533 1496 1416 1173 1359 800 50 193 117 26 401 601 581 617 627 547 419 121 72
0 0 0 0 0 1 6 24 1 0 0 0 0 0 0 0 0 0 0 116 229 217 300 390 491 681 603 266 871 1002 671 601 398 221 372 292 80 257 80 146 608 586 625 658 700 675 340 87 0
0 0 0 0 0 0 1 9 28 12 0 0 0 0 0 0 0 0 0 0 195 156 219 258 932 1727 650 300 421 865 390 448 677 630 1158 969 229 295 254 212 176 179 254 14 131 76 33 0 0
0 0 0 0 0 0 0 3 4 20 19 0 0 0 0 0 0 0 0 0 37 231 115 168 426 1049 1782 588 339 664 414 608 621 569 2161 1937 862 1516 1458 365 367 565 140 177 109 83 252 102 83
0 0 0 0 0 0 0 0 0 6 6 7 0 0 0 0 0 0 0 0 0 92 237 76 263 1395 1608 2683 807 832 987 479 638 754 1626 1254 1178 1932 1190 1138 266 325 119 126 136 97 157 113 166
0 0 0 0 0 0 0 0 0 0 0 0 0 0 0 0 0 0 0 0 6 145 152 302 171 1492 1327 2082 3010 2354 2017 962 717 703 1145 2482 1596 2517 876 909 382 184 55 20 61 160 142 334 265
0 0 0 0 0 0 0 0 0 0 0 0 0 0 0 0 0 0 0 0 0 7 91 97 263 1082 1723 1951 1655 2026 953 998 807 779 2282 2083 2668 2684 1797 596 495 208 215 264 330 293 254 234 361
0 0 0 0 0 0 0 0 0 0 0 0 0 0 0 0 0 0 0 0 0 0 0 6 52 398 1556 1877 1761 1171 795 987 664 704 884 1768 2606 2625 2378 584 383 224 162 91 246 319 413 660 855
0 0 0 0 0 0 0 0 0 0 0 0 0 0 0 0 0 0 0 0 0 0 0 0 13 206 909 1949 1408 1667 1684 988 387 502 286 1106 1301 1589 1896 818 398 1151 201 452 549 734 955 1259 1124
0 0 0 0 0 0 0 0 0 0 0 0 0 0 0 0 1 0 0 0 0 0 0 0 14 106 199 1488 2185 1804 1262 1090 933 578 564 1082 919 951 1184 705 648 893 373 583 868 1297 986 1148 1617
0 0 0 0 0 0 0 0 0 0 0 0 0 0 0 0 0 0 0 0 0 0 0 0 1 51 120 606 1443 1706 1338 1339 1090 911 1109 1254 1201 817 1421 600 907 1178 766 706 1778 1772 2104 1137 1686
0 0 0 0 0 0 0 0 0 0 0 0 0 0 0 0 0 0 0 0 0 0 0 0 0 5 96 254 1139 1288 2043 2133 1923 1564 1531 1530 1154 1712 1615 945 669 1348 880 1810 2437 2399 1282 1410 1779
0 0 0 0 0 0 0 0 0 0 0 0 0 0 0 0 0 0 0 0 0 0 0 0 0 2 7 46 121 400 1157 1734 1532 2160 2550 2020 1528 1568 1559 1228 888 1437 1361 1532 2192 2244 2013 1200 2081
0 0 0 0 0 0 2 0 0 0 0 0 0 0 0 0 0 0 0 0 0 0 0 0 0 0 12 169 125 592 293 240 556 689 1723 2340 2569 1630 1518 1776 1247 1778 2116 1602 2604 2066 2781 3081 1834
0 0 2 1 2 4 0 1 0 0 0 0 0 0 0 0 0 0 0 0 0 0 0 0 0 3 20 98 239 68 153 4 77 492 1735 2602 3839 2331 1726 2250 1784 2321 2056 1570 2430 3774 3371 2562 2575
0 1 4 8 11 20 1 24 0 4 4 0 0 0 0 0 0 2 0 0 0 0 0 0 0 0 0 3 61 228 197 334 191 390 887 826 1236 2090 1776 2383 2248 2623 2118 2291 2963 3694 3166 2698 3306
15 37 39 75 108 81 54 5 4 4 0 1 3 0 0 0 0 2 2 0 0 0 0 0 0 0 4 0 0 8 245 303 316 427 159 411 552 2112 3222 2606 2846 3006 2513 2709 3294 3792 3196 3963 3292
57 80 141 101 127 65 3 5 10 0 13 0 0 0 0 0 0 2 5 2 1 2 0 0 0 0 0 3 0 0 74 5 26 145 89 48 247 413 2532 4403 4009 3938 3623 3240 3548 3283 3560 3795 3390
74 81 73 105 111 92 75 41 43 1 0 0 0 0 0 0 3 8 2 1 2 2 2 0 0 0 0 0 1 10 49 424 265 750 791 175 643 504 818 3234 4882 4238 4012 4188 4279 3883 4142 3636 3582
50 77 94 184 160 119 60 54 65 59 7 1 0 0 4 9 3 7 9 10 7 10 5 0 1 0 0 0 0 0 0 11 180 917 1199 989 1049 1073 1363 1913 3415 4336 4307 4533 4645 3921 3935 3290 3043
110 117 179 155 141 221 187 126 67 23 0 40 46 19 15 22 24 15 14 21 18 16 9 7 5 0 0 1 2 0 0 0 31 205 511 1085 1767 1748 1526 1609 2749 3468 4507 4649 4518 3906 2863 2817 3431
242 237 234 454 240 217 264 105 33 107 26 102 53 37 40 60 32 34 28 2 0 0 3 22 4 0 0 0 0 0 6 0 89 79 124 637 1266 1560 1837 1717 1506 2624 3350 4018 3721 3453 2364 3142 3539

GFSSGP_con_sbcape_078.txt.gz
CAPE
0 0 0 0 0 0 0 0 0 0 0 0 0 0 0 0 0 78 166 36 1156 544 1316 1577 2592 2829 2943 2563 2159 1991 1847 1814 1911 1932 1928 2056 2051 1889 1792 1596 1411 788 295 55 0 0 0 0 0
0 0 0 0 0 0 0 0 0 0 0 0 0 0 0 0 0 0 116 232 1317 696 1415 1107 2403 2746 2861 2715 2300 2029 1890 1930 1961 1945 2011 2112 2095 1905 1639 1453 1097 522 36 0 0 0 0 0 0
0 0 0 0 0 0 0 0 0 0 0 0 0 0 0 0 0 0 66 146 1460 892 1087 1568 2209 2590 2771 2759 2467 2158 2022 2002 2037 2058 2156 2179 2104 1904 1631 1245 912 301 0 0 0 0 0 0 0
0 0 0 0 0 0 0 0 0 0 0 0 0 0 0 0 0 0 103 220 301 1074 486 1631 2050 2425 2659 2746 2534 2336 2266 2206 2191 2222 2206 2251 2062 1752 1398 1160 789 280 20 0 0 0 0 0 0
0 0 0 0 0 0 0 0 0 0 0 0 0 0 0 0 0 0 205 241 274 1008 619 1456 1919 2291 2589 2687 2510 2439 2413 2337 2353 2346 2286 2189 1948 1558 1276 979 616 274 64 21 2 0 0 0 0
0 0 0 0 0 0 0 0 0 0 0 0 0 0 0 2 0 0 247 322 284 741 1200 1667 1713 2095 2277 2386 2359 2293 2275 2281 2359 2348 2256 2084 1760 1362 1062 826 483 324 150 94 81 35 6 5 4
0 0 0 0 0 0 0 0 0 0 0 0 0 0 0 0 0 0 108 200 542 656 1987 1788 1121 1620 2030 2049 2017 1990 1953 1986 2024 1957 1865 1701 1403 1057 829 623 500 445 344 309 282 184 89 72 53
0 0 0 0 0 0 0 0 0 0 0 0 0 0 2 0 0 0 0 216 294 337 2090 2071 989 764 1088 1348 1812 1769 1721 1661 1630 1560 1461 1297 1069 860 662 351 419 476 444 445 460 402 229 191 196
0 0 0 0 0 0 0 0 0 0 0 0 0 0 0 0 0 0 0 201 175 260 1885 1761 574 844 790 670 1212 1611 1589 1584 1513 1338 1371 900 344 310 217 64 211 536 535 548 553 558 486 370 292
0 0 0 0 0 0 0 0 7 0 0 0 0 2 0 0 0 0 0 0 260 234 426 1392 503 723 741 330 1286 872 786 815 763 571 945 484 143 243 9 99 437 511 595 663 666 681 666 310 6
0 0 0 0 0 0 0 0 0 6 0 0 0 0 0 0 0 0 0 0 4 311 363 1058 824 1163 796 407 1545 940 770 657 543 441 734 513 199 301 245 324 69 208 393 27 197 178 151 0 0
0 0 0 0 0 0 0 0 0 0 7 0 0 7 0 0 0 0 0 0 0 152 544 1210 1384 1759 1327 698 1167 1246 474 644 713 625 1073 1295 596 1168 1254 448 179 236 223 57 95 66 125 138 179
0 0 0 0 0 0 0 0 0 0 0 0 1 0 0 0 0 0 0 0 0 17 453 521 1372 2926 2635 3143 2738 1662 482 736 708 998 1190 882 1222 1018 1340 1864 977 748 578 278 275 148 486 437 447
0 0 0 0 0 0 0 0 0 0 0 0 0 0 0 0 0 0 0 0 84 278 649 293 1782 2620 2712 2889 3601 3678 3075 758 998 1008 1081 1538 1541 2204 1992 1990 1927 1205 856 529 397 378 496 333 242
0 0 0 0 0 0 0 0 0 0 0 0 0 0 0 0 0 0 0 25 31 12 211 343 627 2180 2126 2313 3113 3182 2755 1958 2431 1700 2622 1685 2433 2777 2025 1811 1273 1073 759 819 727 721 927 634 710
0 0 0 0 0 0 0 0 0 0 0 0 0 0 0 0 0 7 2 0 10 0 14 59 97 938 2427 2511 2401 2473 2199 2332 1933 2058 2958 2552 2307 2645 3096 1715 1447 1081 955 601 374 436 293 368 455
0 0 0 0 0 0 0 0 0 0 0 0 0 0 0 2 0 59 0 0 0 4 6 18 62 284 2426 1956 2250 2126 1733 1666 1747 1633 1447 2278 2723 2117 2276 1374 1377 1411 830 432 460 588 672 675 1128
0 0 0 0 0 0 0 0 0 0 0 0 0 0 0 0 0 48 0 0 0 8 98 153 218 310 530 1993 2080 1836 1895 1460 1262 816 844 1087 1486 1917 1962 1767 1303 1506 476 393 484 808 1040 1050 1283
0 0 0 0 0 0 0 0 0 0 0 0 0 0 0 0 0 0 20 0 0 35 141 92 382 390 600 1153 1678 1775 1831 1632 1245 1225 630 1095 755 1069 1371 1300 1163 925 467 343 950 1010 1552 1008 1226
0 0 0 0 0 0 0 0 0 0 0 0 0 1 0 0 0 2 15 0 0 39 88 122 63 298 225 694 1078 1262 1817 2014 1755 1040 811 949 982 884 894 894 591 577 669 1045 1063 1327 984 1474 1423
0 0 0 0 0 0 0 0 0 0 0 0 0 0 0 7 0 0 20 0 0 96 143 46 144 115 203 200 236 161 203 667 1014 1681 1273 1583 1235 1242 1033 980 687 424 1401 691 1093 1152 1839 1338 1510
0 0 0 1 3 1 1 0 0 0 2 3 0 0 0 0 0 4 0 0 0 0 15 21 4 23 95 471 462 543 332 42 13 279 445 1584 1418 1089 1178 1282 1509 1125 491 1408 783 1563 1471 1540 594
0 0 0 0 3 13 0 15 0 0 0 1 7 1 0 0 0 0 0 0 0 0 0 14 130 267 153 238 283 404 516 196 109 510 1217 1342 2092 1366 1185 1252 1165 1339 999 631 1075 1915 1508 1588 885
0 0 0 2 10 31 0 19 0 2 46 30 25 0 0 0 0 0 0 0 0 0 0 20 83 304 262 228 302 674 617 493 351 223 339 400 846 2009 1831 1280 1138 1244 1150 1448 1304 1068 1582 974 317
0 9 21 47 79 73 9 73 52 20 0 0 0 0 0 0 0 24 16 0 6 13 30 51 122 198 282 308 343 248 209 425 527 407 174 186 111 577 2307 1809 1183 1458 1552 1602 1687 1201 856 1428 1731
16 30 61 78 210 213 134 126 0 121 4 0 1 0 0 0 0 0 41 47 6 46 112 54 158 209 312 304 422 536 313 172 139 251 138 66 101 134 420 2390 1062 500 1840 1152 1622 1486 1186 1634 2497
31 127 89 97 149 128 95 102 161 124 25 5 0 0 0 0 1 0 7 14 39 62 189 172 214 87 247 326 446 354 426 702 646 754 654 324 339 192 294 515 491 2723 2625 1907 2043 2040 1973 2422 2702
63 67 183 75 85 107 84 72 151 203 166 44 0 1 0 0 0 2 0 31 86 112 367 435 300 201 119 160 221 156 326 483 488 605 455 752 603 615 553 469 435 1012 3132 3002 2928 2638 2301 2365 2942
68 53 24 79 231 208 168 66 126 117 94 115 24 4 12 20 0 17 28 37 43 71 51 350 259 200 208 251 220 158 163 204 252 341 386 441 692 619 1069 843 699 321 952 3221 3089 2998 3055 3023 3229
64 71 30 53 105 156 55 11 166 81 97 28 4 46 6 27 1 28 34 43 14 22 14 34 311 118 24 9 20 110 178 34 204 204 234 296 250 340 401 658 1128 841 399 1833 3155 3184 3464 3141 3117

GFSSGP_con_sbcape_084.txt.gz
CAPE
0 0 0 0 0 0 0 0 0 0 0 0 0 70 99 33 47 24 76 203 1019 1894 2151 2398 2325 2194 2077 1870 1725 1526 1482 1394 1451 1550 1608 1637 1618 1607 1526 1412 1227 571 174 0 0 0 0 0 0
0 0 0 0 0 0 0 0 0 0 0 0 0 0 26 47 21 331 372 489 943 1745 2069 2136 2391 2172 2090 1859 1642 1512 1578 1478 1508 1618 1690 1689 1641 1532 1226 1222 782 123 0 0 0 0 0 0 0
0 0 0 0 0 0 0 0 0 0 0 0 0 0 0 9 6 28 168 355 980 1563 1804 2141 2452 2135 2072 1890 1594 1552 1638 1520 1609 1736 1714 1547 1583 1483 1374 1142 680 36 0 0 0 0 0 0 0
0 0 0 0 0 0 0 0 0 0 0 0 0 0 0 0 1 25 323 357 726 1003 1576 2480 2493 2185 2017 1889 1662 1671 1734 1649 1704 1837 1835 1620 1389 1353 1176 983 579 160 0 0 0 0 0 0 0
0 0 0 0 0 0 0 0 0 0 0 0 0 0 0 0 11 148 346 248 328 471 1335 2268 2483 2351 2116 2002 1817 1792 1841 1742 1770 1893 1851 1633 1482 1233 1093 856 577 237 21 0 0 0 0 0 0
0 0 0 0 0 0 0 0 0 0 0 0 0 0 0 0 0 0 329 254 192 462 1236 2032 2400 1934 2096 2107 1913 1854 1851 1860 1935 1952 1929 1742 1386 1185 1010 795 519 319 117 51 5 18 0 0 0
0 0 0 0 0 0 0 0 0 0 0 0 0 0 0 0 0 0 1 258 130 656 848 1744 1991 1803 1700 1945 1938 1860 1837 1911 1884 1843 1778 1586 1344 1093 868 665 512 361 178 197 226 107 49 42 38
0 0 0 0 0 0 0 0 0 0 0 0 0 0 0 0 0 0 0 143 174 853 801 1171 1687 1625 1425 1426 2171 1989 1954 1964 1860 1810 1682 1492 1281 1017 751 333 434 511 355 327 368 327 188 147 122
0 0 0 0 0 0 0 0 0 0 0 0 0 0 0 0 0 0 0 659 571 901 778 795 1337 1452 1355 1269 1999 2096 2228 2113 1961 1920 1741 1172 641 510 399 133 401 541 511 480 522 570 400 262 211
0 0 0 0 0 0 0 0 0 0 0 0 0 0 0 0 0 0 0 5 1063 893 730 645 850 1073 1253 1561 1487 1709 1641 1752 1580 1444 1285 541 221 116 118 94 334 477 534 530 573 634 605 358 95
0 0 0 0 0 0 0 0 0 0 0 0 0 0 0 0 0 0 0 0 218 1373 955 549 470 568 846 1110 1088 1165 1197 991 953 911 600 218 113 125 126 26 74 88 215 52 182 251 275 172 102
0 0 0 0 0 0 0 0 0 0 0 0 0 0 0 0 0 0 0 0 1 1032 1291 590 426 337 315 710 832 901 870 556 474 613 342 128 37 5 25 1 0 0 4 18 0 0 0 52 46
0 0 0 0 0 0 0 0 0 0 0 0 0 0 0 0 0 0 0 0 39 152 618 483 491 447 219 616 409 518 585 524 391 252 279 105 3 0 7 19 0 0 0 0 0 0 0 0 0
0 0 0 0 0 0 0 0 0 0 0 0 0 0 0 0 0 0 0 0 0 66 178 314 556 491 215 746 496 320 272 278 219 192 242 136 0 0 5 56 17 0 0 0 0 0 0 0 4
0 0 0 0 0 0 0 0 0 0 0 0 0 0 0 0 0 0 0 0 0 0 9 428 710 631 454 783 745 450 288 309 271 214 184 263 82 0 44 163 153 85 82 85 48 18 2 0 19
0 0 0 0 0 0 0 0 0 0 0 0 0 0 0 0 0 0 0 0 0 0 33 234 1624 1077 792 1236 1376 1042 698 338 407 393 317 336 371 229 41 164 315 285 225 194 149 101 14 1 8
0 0 0 0 0 0 0 0 0 0 0 0 0 0 0 0 0 0 0 0 0 0 0 0 109 646 1182 1102 1596 1332 711 644 446 485 448 549 436 601 738 278 461 396 204 201 129 8 4 1 6
0 0 0 0 0 0 0 0 0 0 0 0 0 0 0 0 0 0 0 0 0 0 0 0 14 114 692 1142 1291 1267 959 754 486 403 818 675 710 594 855 1256 605 590 399 249 122 51 64 87 138
0 0 0 0 0 0 0 0 0 0 0 0 0 0 0 0 0 0 0 0 0 0 0 0 0 0 112 1424 1397 1063 1080 767 602 504 331 590 1017 1044 971 925 874 526 602 402 163 59 84 210 263
0 0 0 0 0 0 0 0 0 0 0 0 0 0 0 0 0 0 0 0 0 0 0 0 1 3 16 230 592 721 671 798 778 584 329 214 336 1387 1350 1260 997 896 632 430 192 188 203 219 241
0 0 0 0 0 0 0 0 0 0 0 0 0 0 0 0 0 0 0 0 0 0 0 0 0 0 0 16 92 63 41 730 777 508 591 620 222 463 1469 1407 1137 746 744 769 309 166 162 130 355
0 0 0 0 0 0 0 0 0 0 0 0 0 0 0 0 0 0 0 0 0 0 0 0 0 0 0 0 0 11 26 82 304 281 317 258 841 633 558 803 1092 773 488 581 225 224 308 168 202
0 0 0 0 0 0 0 0 0 0 0 0 0 0 0 0 0 0 0 0 0 0 0 0 0 0 0 15 40 61 55 123 93 56 53 186 936 1046 1044 576 585 634 395 313 226 225 290 405 341
0 0 0 0 0 0 0 0 0 0 0 0 0 0 0 0 0 0 0 0 0 0 0 0 0 0 0 0 1 1 0 0 13 110 70 166 311 453 586 781 791 564 471 338 162 268 347 436 616
0 0 0 0 0 0 0 0 0 0 0 0 0 0 0 0 0 0 0 0 0 0 0 0 0 0 0 29 44 10 10 80 129 39 11 11 15 19 154 1001 901 958 939 784 565 209 439 627 758
0 0 0 0 0 0 0 0 0 0 0 0 0 0 0 0 0 0 0 0 0 0 0 0 0 0 0 0 0 0 0 0 1 52 41 20 4 9 38 68 438 1168 1003 1010 909 676 245 429 729
0 0 0 0 0 1 0 0 0 0 0 0 0 0 0 0 0 0 0 0 0 0 0 0 0 0 0 0 0 0 0 25 42 26 11 5 111 271 302 174 133 320 942 991 936 903 927 715 725
0 0 0 0 2 4 0 0 0 0 0 0 0 0 0 0 0 0 0 0 0 0 0 0 0 0 0 0 0 0 0 0 0 0 82 233 318 208 325 409 380 329 280 500 678 741 1078 1080 960
0 0 0 0 0 0 2 0 0 0 0 0 0 0 0 0 0 0 0 0 0 0 0 0 0 0 0 0 0 0 7 0 0 0 0 0 32 113 183 170 165 221 369 337 241 281 883 1071 1218
0 0 0 0 0 16 10 0 0 0 0 0 0 0 0 0 0 0 0 0 0 0 0 0 0 0 0 0 0 0 0 0 0 0 0 0 0 0 0 84 69 122 105 66 129 232 302 673 1313

GFSSGP_con_sbcape_087.txt.gz
CAPE
0 0 0 0 0 0 0 0 0 0 0 0 0 0 18 11 25 2 47 231 1150 1595 1884 2116 2181 2065 1914 1630 1493 1304 1280 1330 1357 1429 1454 1518 1605 1643 1542 1405 1154 623 259 20 0 0 0 0 0
0 0 0 0 0 0 0 0 0 0 0 0 0 0 0 0 44 238 118 629 1031 1636 1827 1809 2196 2114 1873 1590 1424 1327 1266 1295 1335 1411 1445 1429 1462 1419 1178 1118 781 238 24 0 0 0 0 0 0
0 0 0 0 0 0 0 0 0 0 0 0 0 0 0 0 3 93 119 838 1362 1590 1712 1725 2178 2106 1892 1617 1487 1396 1328 1316 1414 1520 1530 1467 1374 1320 1153 989 671 76 0 0 0 0 0 0 0
0 0 0 0 0 0 0 0 0 0 0 0 0 0 0 0 0 55 375 906 1220 1527 1628 2139 2154 2092 1941 1633 1514 1499 1434 1428 1470 1499 1412 1279 1033 1080 1076 864 581 197 3 0 0 0 0 0 0
0 0 0 0 0 0 0 0 0 0 0 0 0 0 0 0 10 190 240 728 973 1276 1455 2077 2131 2114 2055 1651 1532 1635 1543 1555 1641 1575 1232 1143 1076 968 935 769 530 225 51 1 0 0 0 0 0
0 0 0 0 0 0 0 0 0 0 0 0 0 0 0 0 0 194 133 376 616 987 1582 1893 2137 2059 1963 1862 1765 1727 1607 1628 1745 1719 1563 1365 1129 979 845 752 552 362 154 76 8 1 6 0 0
0 0 0 0 0 0 0 0 0 0 0 0 0 0 0 0 0 106 160 82 268 794 1708 1756 1852 1909 2029 1823 1766 1764 1659 1675 1672 1672 1610 1426 1241 1077 911 736 537 417 302 292 234 121 11 0 0
0 0 0 0 0 0 0 0 0 0 0 0 0 0 0 0 0 0 191 72 176 859 1470 1611 1537 1750 1647 1689 1909 1820 1764 1743 1660 1668 1603 1386 1230 1045 862 512 462 454 319 343 341 199 76 25 3
0 0 0 0 0 0 0 0 0 0 0 0 0 0 0 0 1 297 243 232 619 646 909 1338 1279 1207 1263 1454 1750 1861 1891 1878 1738 1732 1635 1131 718 672 353 215 233 571 489 443 423 362 211 126 106
0 0 0 0 0 0 0 0 0 0 0 0 0 0 0 0 0 261 442 491 607 747 736 1094 1251 1146 1028 1343 1687 1572 1346 1548 1430 1347 1292 773 375 234 163 127 381 581 598 554 490 473 404 234 27
0 0 0 0 0 0 0 0 0 0 0 0 0 0 0 0 0 0 35 672 717 860 844 786 1127 1022 1116 1246 1452 1509 1253 1142 1101 1146 1052 493 256 237 199 42 131 105 218 80 205 218 199 76 34
0 0 0 0 0 0 0 0 0 0 0 0 0 0 0 0 0 0 0 0 426 990 924 779 743 937 973 1154 1213 999 1037 1060 924 815 674 324 162 66 30 0 0 0 0 25 0 0 0 40 29
0 0 0 0 0 0 0 0 0 0 0 0 0 0 0 0 0 0 0 0 66 1154 1011 843 683 625 536 860 901 1007 940 896 895 778 524 273 138 31 5 0 0 0 0 0 0 0 0 0 0
0 0 0 0 0 0 0 0 0 0 0 0 0 0 0 0 0 0 0 7 165 728 1100 817 702 549 460 770 726 786 809 855 720 610 589 279 106 6 0 0 0 0 0 0 0 0 0 0 0
0 0 0 0 0 0 0 0 0 0 0 0 0 0 0 0 0 0 0 1 50 220 693 639 759 655 509 602 656 488 546 464 502 468 427 386 123 12 0 0 11 11 1 2 0 0 0 0 0
0 0 0 0 0 0 0 0 0 0 0 0 0 0 0 0 0 0 0 0 3 64 268 590 898 736 640 523 786 546 343 244 229 208 247 316 197 16 0 10 25 70 47 66 70 50 18 4 0
0 0 0 0 0 0 0 0 0 0 0 0 0 0 0 0 0 0 0 0 0 2 53 394 818 774 742 701 919 841 567 409 300 264 226 230 267 169 26 11 132 232 214 228 190 65 22 0 0
0 0 0 0 0 0 0 0 0 0 0 0 0 0 0 0 0 0 0 0 0 0 0 9 234 790 867 1109 1219 1143 900 592 410 421 413 397 390 424 397 252 141 419 268 247 152 118 19 28 29
0 0 0 0 0 0 0 0 0 0 0 0 0 0 0 0 0 0 0 0 0 0 0 0 30 299 1122 1286 1394 1190 1335 920 554 587 637 921 746 728 526 686 999 538 460 451 198 99 118 117 177
0 0 0 0 0 0 0 0 0 0 0 0 0 0 0 0 0 0 0 0 0 0 0 0 0 0 210 1061 1054 949 864 779 738 605 553 606 838 1112 1247 822 680 831 698 474 288 148 175 136 140
0 0 0 0 0 0 0 0 0 0 0 0 0 0 0 0 0 0 0 0 0 0 0 0 0 0 9 182 130 21 40 476 646 607 660 560 525 542 493 687 748 687 778 646 336 210 167 272 201
0 0 0 0 0 0 0 0 0 0 0 0 0 0 0 0 0 0 0 0 0 0 0 0 0 0 0 5 7 14 326 575 441 127 155 338 543 514 395 179 366 666 846 633 406 264 290 135 201
0 0 0 0 0 0 0 0 0 0 0 0 0 0 0 0 0 0 0 0 0 0 0 0 0 0 0 0 0 0 17 47 45 35 48 153 531 663 600 161 71 297 404 560 288 215 229 252 269
0 0 0 0 0 0 0 0 0 0 0 0 0 0 0 0 0 0 0 0 0 0 0 0 0 0 0 0 0 0 0 4 5 5 51 42 138 352 588 772 672 680 629 419 252 224 160 187 260
0 0 0 0 0 0 0 0 0 0 0 0 0 0 0 0 0 0 0 0 0 0 0 0 0 0 0 0 10 35 15 6 4 2 0 1 8 9 35 264 857 784 678 351 147 288 236 222 266
0 0 0 0 0 0 0 0 0 0 0 0 0 0 0 0 0 0 0 0 0 0 0 0 0 9 10 99 112 49 20 1 0 3 0 0 0 0 3 7 77 581 1030 850 663 574 336 333 448
0 0 0 0 0 0 0 0 0 0 0 0 0 0 0 0 0 0 0 0 0 0 0 0 0 0 0 0 0 0 0 0 0 0 0 0 0 14 242 246 182 123 255 766 872 883 767 539 419
0 0 0 0 0 0 0 0 0 0 0 0 0 0 0 0 0 0 0 0 0 0 0 0 0 0 0 0 0 0 0 0 0 0 0 0 12 89 125 275 398 404 365 313 388 501 654 686 652
0 0 0 0 0 1 0 0 0 0 0 0 0 0 0 0 0 0 0 0 0 0 0 0 0 0 0 0 0 13 0 0 0 0 0 0 3 14 55 13 53 173 270 306 319 218 198 457 451
0 0 0 0 0 4 2 0 0 0 0 0 0 0 0 0 0 0 0 0 0 0 0 0 0 0 0 0 0 0 3 0 0 0 0 0 0 0 0 0 0 0 3 39 82 148 193 244 280

GFSSGP_con_sbcape_093.txt.gz
CAPE
0 0 0 0 0 0 0 0 0 0 0 0 0 23 37 13 24 41 416 230 309 1460 1718 1511 1905 2015 2084 2094 2119 2061 2017 2027 2009 1996 1869 1726 1756 1818 1685 1566 1226 853 335 68 0 0 0 0 21
0 0 0 0 0 0 0 0 0 0 0 0 0 0 0 10 43 553 493 400 403 1664 1674 1206 1928 1944 1911 1890 1865 1852 1909 1934 1913 1883 1781 1714 1689 1651 1363 1199 876 471 127 0 0 0 0 0 0
0 0 0 0 0 0 0 0 0 0 0 0 0 0 0 0 0 143 447 938 747 1615 1579 1374 1983 1871 1796 1739 1718 1730 1762 1760 1806 1802 1735 1678 1616 1494 1311 1164 1013 353 39 0 0 0 0 0 0
0 0 0 0 0 0 0 0 0 0 0 0 0 0 0 0 0 218 869 1067 1092 1410 1322 1793 1910 1782 1655 1593 1554 1642 1669 1691 1741 1761 1703 1632 1546 1389 1259 1157 930 525 27 0 0 0 0 0 0
0 0 0 0 0 0 0 0 0 0 0 0 0 0 0 0 501 1123 1311 1240 1047 1328 1255 1567 1853 1772 1680 1470 1365 1531 1552 1530 1608 1689 1650 1578 1419 1271 1188 1014 715 503 150 36 0 0 0 0 0
0 0 0 0 0 0 0 0 0 0 0 0 0 0 0 0 170 1202 1381 1344 880 1366 1493 1473 1775 1719 1662 1564 1474 1507 1455 1495 1557 1587 1537 1464 1276 1117 1022 880 676 500 267 103 51 40 39 0 0
0 0 0 0 0 0 0 0 0 0 0 0 0 0 0 0 0 962 1403 1444 1026 1342 1672 1654 1260 1466 1685 1614 1465 1431 1401 1437 1475 1415 1343 1319 1189 1062 977 826 729 579 353 210 158 110 57 17 0
0 0 0 0 0 0 0 0 0 0 0 0 0 0 0 0 0 637 1027 1353 1087 1320 1545 1669 1501 1025 884 1104 1611 1484 1446 1485 1442 1441 1392 1221 1126 1054 971 738 700 636 490 363 275 138 71 42 15
0 0 0 0 0 0 0 0 0 0 0 0 0 0 0 0 0 391 648 972 1011 1071 1476 1618 1476 1416 972 804 1134 1466 1355 1493 1477 1339 1338 889 247 334 330 203 512 693 553 431 385 265 139 83 45
0 0 0 0 0 0 0 0 0 0 0 0 0 0 0 0 54 287 738 814 878 943 1308 1524 1687 1656 1287 838 1067 1026 924 839 752 663 656 535 418 409 190 223 362 637 604 455 412 387 217 79 0
0 0 0 0 0 0 0 0 0 0 0 0 0 0 0 0 0 437 858 836 849 793 1226 1407 1864 1861 1402 1049 1172 1262 1146 1198 1255 1226 1284 982 593 488 368 202 189 169 330 59 94 83 36 5 3
0 0 0 0 0 0 0 0 0 0 0 0 0 0 0 0 0 0 633 963 836 853 1302 1580 1925 2068 1818 1598 1407 1224 1165 1371 1389 1295 1396 1188 1027 739 480 343 180 267 103 131 116 30 53 120 149
0 0 0 0 0 0 0 0 0 0 0 0 0 0 0 0 0 0 12 519 968 1215 1246 1649 1870 2188 2265 2102 1785 1641 1506 1437 1293 1361 1373 1203 993 1000 666 517 359 187 115 83 93 56 91 222 303
0 0 0 0 0 0 0 0 0 0 0 0 0 0 0 0 0 0 0 0 46 1429 1691 1644 1961 2202 2289 2469 2530 2117 1866 1657 1623 1509 1483 1430 1194 1337 841 715 507 353 200 94 76 88 210 308 376
0 0 0 0 0 0 0 0 0 0 0 0 0 0 0 0 0 0 0 0 0 334 1751 1888 2147 2251 2308 2279 2544 2547 2197 1892 1803 1668 1619 1399 1289 1443 1127 867 683 441 301 207 168 243 304 314 360
0 0 0 0 0 0 0 0 0 0 0 0 0 0 0 0 0 0 0 0 7 13 925 1988 1701 1924 2106 2080 2367 2235 2116 1995 1935 1781 1652 1336 1760 1693 1279 1024 770 575 330 277 302 393 467 507 583
0 0 0 0 0 0 0 0 0 0 0 0 0 0 0 0 0 0 0 0 0 9 436 1662 2090 1916 2213 2278 2077 2166 2279 1946 1863 1933 1789 1931 1768 1607 1697 1341 901 506 377 317 310 388 536 690 963
0 0 0 0 0 0 0 0 0 0 0 0 0 0 0 0 0 0 0 0 0 0 66 989 2021 2193 1970 1892 1871 1758 1808 1802 1826 1832 1855 1900 1941 1537 1513 1172 1070 585 546 456 390 506 630 807 1008
0 0 0 0 0 0 0 0 0 0 0 0 0 0 0 0 0 0 0 0 0 0 0 223 1155 2351 2173 1884 1626 1736 1657 1673 1677 1613 1519 1568 1402 1310 1349 1126 767 615 655 745 789 782 1009 1067 893
0 0 0 0 0 0 0 0 0 0 0 0 0 0 0 0 0 0 0 0 0 0 0 0 146 1190 2173 2150 2287 2013 2117 1990 1826 1691 1590 1442 1353 1401 1275 884 979 906 978 974 1098 1089 1116 1212 1137
0 0 0 0 0 0 0 0 0 0 0 0 0 0 0 0 0 0 0 0 0 0 0 0 44 506 1595 2404 2339 2205 2432 2304 2231 2142 1951 1916 1706 1762 1599 1299 1104 1608 1983 1706 1482 1188 982 936 1152
0 0 0 0 0 0 0 0 0 0 0 0 0 0 0 0 0 0 0 0 0 0 0 0 52 203 511 1919 2504 2718 2426 2473 2455 2665 2465 2348 2245 2218 2103 1766 1696 1909 2038 1449 783 585 691 522 445
0 0 0 0 0 0 0 0 0 0 0 0 0 0 0 0 0 0 0 0 0 0 0 0 0 171 436 1171 2540 2868 2898 2671 2742 2793 2970 2970 2716 2549 2499 2566 2454 2316 1639 1212 866 511 201 19 23
0 0 0 0 0 0 0 0 0 0 0 0 0 0 0 0 0 0 0 0 0 0 0 0 0 27 370 827 1752 3074 3315 2864 2138 2336 2730 2802 2652 2587 2497 2376 2502 1687 1244 1191 829 618 770 232 202
0 0 0 0 0 0 0 0 0 0 0 0 0 0 0 0 0 0 0 0 0 0 0 0 0 0 76 481 1336 2074 3041 2466 2413 2071 2178 1859 1666 1573 1845 2196 2068 1723 1493 1280 1199 937 598 371 408
0 0 0 0 0 1 0 0 0 0 0 0 0 0 0 0 0 0 0 0 0 0 0 0 0 0 0 167 731 1126 1240 1610 1481 1217 899 954 831 998 1386 1485 1788 2037 2047 1918 1487 906 572 503 453
0 0 0 0 0 2 0 0 0 0 0 0 0 0 0 0 0 0 0 0 0 0 0 0 0 4 14 71 296 357 394 435 479 654 831 625 630 469 680 724 815 808 1618 2245 2101 1494 1339 1222 1014
0 0 0 1 4 15 2 8 9 0 0 0 0 0 0 0 0 0 0 0 0 0 0 0 0 0 59 184 335 400 537 620 645 719 776 811 786 809 915 977 1300 1288 1091 1619 2346 2213 1933 1620 1360
0 0 0 1 23 28 15 2 0 0 0 0 0 0 0 0 0 0 0 0 0 19 11 11 26 42 105 226 425 460 472 483 562 770 961 1146 1187 1108 1280 1395 1497 1597 1672 1690 1860 1899 1756 1753 1666
0 0 0 69 13 27 13 2 0 0 0 0 0 0 0 0 0 0 0 0 11 19 9 11 4 0 1 162 79 169 79 272 675 893 980 1173 1126 1144 1289 1424 1228 864 936 1184 947 852 649 731 732

GFSSGP_con_sbcape_096.txt.gz
CAPE
0 0 0 0 0 0 8 0 0 0 0 0 0 96 66 68 169 652 1022 226 150 887 1837 1457 2158 2367 2468 2540 2462 2243 1954 1785 1766 1788 1650 1697 1843 1880 1796 1699 1327 898 394 76 0 0 0 44 169
0 0 0 0 0 0 50 0 0 0 0 0 0 1 51 80 186 744 764 287 487 1018 1875 1216 2039 2260 2401 2181 2360 2151 2044 1960 1956 1948 1794 1817 1874 1836 1615 1549 1121 609 178 18 0 0 1 35 255
0 0 0 0 0 0 6 0 0 0 0 0 0 0 0 27 19 623 890 549 614 1133 1427 1365 2032 2077 2244 2271 2226 2144 2123 2044 2079 2082 1968 1925 1875 1783 1625 1479 1194 453 92 0 0 0 0 0 4
0 0 0 0 0 0 0 0 0 0 0 0 0 0 0 0 36 708 837 768 940 989 1056 1631 1976 1953 2037 1955 2105 2107 2116 2097 2119 2124 1972 1850 1758 1626 1451 1355 1106 735 71 0 0 0 0 0 0
0 0 0 0 0 0 0 0 0 0 0 0 0 0 0 0 818 1246 1031 897 1130 972 903 1852 1946 1923 1933 1862 1798 1977 2004 1979 2007 2005 1899 1765 1663 1457 1348 1295 993 638 152 24 0 0 5 0 0
0 0 0 0 0 0 0 0 0 0 0 0 0 0 0 0 232 1411 1402 1487 1053 982 960 1461 1688 1806 1749 1830 1806 1764 1728 1782 1853 1853 1798 1680 1501 1342 1287 1192 943 673 313 103 16 9 19 8 0
0 0 0 0 0 0 0 0 0 0 0 0 0 0 0 0 0 896 1690 1680 1105 962 1066 1668 1097 1268 1625 1652 1665 1602 1556 1583 1676 1647 1568 1537 1310 1205 1115 1025 864 657 461 301 123 30 30 27 6
0 0 0 0 0 0 0 0 0 0 0 0 0 0 0 0 0 33 1445 1675 1092 900 900 1608 1258 779 666 761 1657 1600 1554 1606 1593 1577 1491 1409 1116 983 893 809 743 512 341 245 135 56 40 28 22
0 0 0 0 0 0 0 0 0 0 0 0 0 0 0 0 0 12 570 1531 1227 793 893 1275 1263 996 751 648 1006 1450 1410 1534 1617 1470 1429 1018 354 259 193 88 727 443 292 192 148 95 75 25 41
0 0 0 0 0 0 0 0 0 0 0 0 0 0 0 0 0 4 237 890 1306 994 810 1160 1404 1285 979 596 1033 784 585 508 487 559 860 800 290 101 42 112 371 315 273 224 201 168 116 29 0
0 0 0 0 0 0 0 0 0 0 0 0 0 0 0 0 0 0 82 277 1024 1126 1063 1146 1798 1886 1556 853 980 858 681 557 440 451 753 792 287 317 247 150 192 82 237 27 49 30 2 0 0
0 0 0 0 0 0 0 0 0 0 0 0 0 0 0 0 0 0 0 359 894 1223 1336 1418 1833 2326 2542 1403 1103 1070 735 739 680 691 921 1051 656 500 315 118 68 95 61 32 61 25 25 57 192
0 0 0 0 0 0 0 0 0 0 0 0 0 0 0 0 0 0 0 0 388 887 1431 1803 1842 2462 2529 2332 1599 1657 1592 1046 1117 1133 1362 1057 784 949 522 346 238 162 75 79 94 42 50 155 511
0 0 0 0 0 0 0 0 0 0 0 0 0 0 0 0 0 0 0 0 19 632 1329 1846 2199 2558 2544 2538 2525 2056 1890 1614 1509 1359 1336 1679 1342 1547 798 700 527 304 178 104 75 67 105 334 670
0 0 0 0 0 0 0 0 0 0 0 0 0 0 0 0 0 0 0 0 0 0 187 1929 2520 2715 2930 3064 3001 2893 2217 1905 1687 1695 2348 1993 2073 1708 1548 983 810 528 500 388 341 264 339 650 765
0 0 0 0 0 0 0 0 0 0 0 0 0 0 0 0 0 0 0 0 0 0 0 718 1660 2175 3102 3074 3107 2970 2436 2234 1921 1871 2072 2342 2618 2098 2191 1357 1180 1062 1032 652 412 307 369 538 756
0 0 0 0 0 0 0 0 0 0 0 0 0 0 0 0 0 0 0 0 0 0 0 110 788 1905 2624 3371 3211 3106 3355 2756 2283 2167 2337 2600 1891 1975 2646 2180 1521 1835 1127 877 669 437 396 373 662
0 0 0 0 0 0 0 0 0 0 0 0 0 0 0 0 0 0 0 0 0 0 0 9 325 2356 2793 3267 3564 2992 2691 2587 2411 2308 2347 2635 2368 2286 2572 2288 2244 2155 1175 1173 964 924 520 425 328
0 0 0 0 0 0 0 0 0 0 0 0 0 0 0 0 0 0 0 0 0 0 0 41 75 1936 2914 3057 3302 3189 2908 2731 2571 2426 2519 2371 2359 2402 3329 2234 2325 1754 1441 1811 1656 1082 843 548 1024
0 0 0 0 0 0 0 0 0 0 0 0 0 0 0 0 0 0 0 0 0 0 0 16 176 676 2415 2870 3018 2981 2911 2738 2682 2524 2845 2765 2722 2641 2523 2636 2375 1987 1530 1464 1241 1327 763 1109 1617
0 0 0 0 0 0 0 0 0 0 0 0 0 0 0 0 0 0 0 0 0 0 0 0 51 396 947 2766 2830 3098 2937 2916 2796 2852 2985 3016 2954 2812 2559 2424 2356 1919 1478 1335 1622 2054 2188 1903 1625
0 0 0 0 0 0 0 0 0 0 0 0 0 0 0 0 0 0 0 0 0 0 0 0 0 121 430 995 2242 3825 2903 2607 2512 3099 2949 3179 3211 2998 2630 2421 2449 2602 2085 1899 2213 2194 2265 2249 1698
0 0 0 0 0 0 0 0 0 0 0 0 0 0 0 0 0 0 0 0 0 0 0 0 0 13 237 700 1266 2175 3353 2410 2205 2411 3531 4180 4044 3221 2589 2603 2591 2130 1917 1921 2386 2522 2309 1504 954
0 0 0 0 0 0 0 0 0 0 0 0 0 0 0 0 0 0 0 0 0 0 0 0 0 84 191 402 886 1812 3031 3134 2125 2453 2650 2929 3403 3644 3483 3269 3536 3607 4012 3517 3089 2158 2455 1850 1186
0 0 2 6 13 1 7 1 5 0 0 0 0 0 0 0 0 0 0 0 0 0 0 0 0 20 157 226 436 923 2003 3360 4148 3850 3130 3382 2979 4397 4030 3982 3980 3673 3841 3231 2236 2216 2431 1974 1691
13 27 28 21 25 19 3 8 16 0 0 0 0 0 0 0 0 0 0 0 0 0 0 0 0 7 173 265 314 582 971 1707 2583 3541 2946 2855 2908 3483 3653 3923 3670 3599 3386 3065 2837 2545 2350 2312 1887
0 0 1 14 16 30 12 13 13 10 0 0 0 0 0 0 0 0 0 0 0 0 0 0 0 53 115 322 415 505 772 1893 2457 2822 3496 3304 3521 2710 2916 3314 3417 3398 3244 3061 3143 2614 2535 2342 2134
0 0 13 13 28 33 21 9 25 3 25 11 0 2 0 0 0 0 0 0 0 0 0 13 34 39 112 247 549 532 783 1259 1910 2305 2163 1892 1333 798 1111 1336 1563 1717 1894 2332 2811 2860 2654 2801 2201
3 12 15 21 33 80 43 25 2 0 10 24 3 0 0 0 0 0 0 2 1 0 0 12 50 58 93 87 453 691 781 841 922 1078 965 901 974 811 657 639 674 805 1027 1351 1817 2076 2170 2294 2522
0 0 15 142 54 57 97 52 12 18 31 20 10 19 1 0 0 3 2 13 14 5 0 5 35 70 213 117 108 206 542 811 881 1007 1124 1131 1131 962 775 839 903 930 950 1276 1442 1374 1292 1651 1882

GFSSGP_con_sbcape_102.txt.gz
CAPE
0 0 0 0 0 0 0 0 1 0 0 0 0 0 0 291 1114 1715 1149 492 1353 1231 2016 2291 2715 2744 2562 2320 2235 1888 1695 1717 1712 1670 1726 1812 1862 1798 1866 1788 1621 1148 484 198 32 31 89 192 343
0 0 0 0 0 0 0 34 19 3 0 0 0 0 11 144 742 796 183 656 1312 1281 1738 2030 2717 2735 2705 2367 2215 1895 1764 1814 1795 1751 1792 1847 1897 1737 1592 1643 1378 742 205 3 0 25 130 179 317
0 0 0 0 0 0 1 2 21 0 0 0 0 0 7 99 597 981 299 768 1227 1220 1368 2347 2720 2695 2691 2560 2252 1988 1842 1879 1895 1859 1887 1838 1813 1771 1651 1470 1165 494 53 0 0 52 256 326 279
0 0 0 0 0 0 0 1 7 0 0 0 0 0 0 174 460 934 571 469 1054 906 1127 2154 2537 2580 2660 2619 2385 2087 1974 1988 2006 1944 1941 1896 1725 1690 1631 1423 1038 559 51 0 8 59 106 175 230
0 0 0 0 0 0 0 0 0 0 0 0 0 0 37 210 440 537 566 663 709 939 2060 1942 2409 2506 2567 2603 2451 2249 2105 2113 2080 2069 1982 1870 1779 1596 1464 1257 888 508 58 0 0 8 0 0 0
0 0 0 0 0 0 0 0 0 0 0 0 0 0 56 148 182 219 414 671 720 1218 2221 1785 2207 2426 2424 2496 2413 2258 2113 2092 2171 2125 1999 1906 1672 1410 1215 1073 840 546 104 0 0 0 0 0 0
0 0 0 0 0 0 0 0 0 0 0 0 0 0 1 24 213 448 438 681 786 1073 2300 1754 1283 2030 2301 2260 2229 2167 2057 2045 2074 1989 1919 1793 1542 1324 1156 984 751 461 217 90 47 16 0 0 0
0 0 0 0 0 0 0 1 0 0 0 0 0 0 0 0 0 34 439 455 455 495 1868 1484 1212 1140 1583 1830 2180 2079 1995 1991 1942 1909 1820 1632 1431 1256 1111 1006 754 514 235 142 89 36 1 0 0
0 0 0 0 0 0 0 0 0 0 0 0 0 0 0 0 0 0 32 390 377 449 1473 1267 608 831 813 1013 1776 1943 1938 1988 1897 1858 1762 1284 856 880 722 456 691 716 456 293 229 143 76 60 82
0 0 0 0 0 0 0 0 0 0 0 0 0 0 0 0 0 0 0 205 350 361 682 1392 909 839 607 348 1474 1578 1658 1691 1626 1531 1525 1135 722 865 294 278 848 797 607 473 420 349 279 165 0
0 0 0 0 0 0 0 0 0 0 0 0 0 0 0 0 0 0 0 4 177 468 395 1366 1967 1573 905 582 1641 1006 800 1076 1391 1544 1660 1265 689 813 362 478 240 387 585 171 287 240 90 0 0
0 0 0 0 0 0 0 0 0 0 0 0 0 0 0 0 0 0 0 0 8 372 324 1196 2219 2444 1873 1279 1585 1473 621 579 599 645 1206 1293 1009 886 440 485 182 231 159 28 48 20 22 10 52
0 0 0 0 0 0 0 0 0 0 0 0 0 0 0 0 0 0 0 0 0 19 1117 892 1753 3113 2431 3190 3198 1907 1041 810 597 726 690 847 1122 1404 791 402 483 393 131 73 48 142 133 352 312
0 0 0 0 0 0 0 0 0 0 0 0 0 0 0 0 0 0 0 0 5 131 1661 1334 1118 601 3000 3058 3741 4224 2168 1411 945 888 715 1045 1770 1194 1107 1234 665 533 176 255 158 481 519 412 252
0 0 0 0 0 0 0 0 0 0 0 0 0 0 0 0 0 0 0 0 0 2 686 885 1131 0 11 3455 3748 3600 3442 2091 1748 1120 1346 1292 1436 1978 1480 1064 1436 870 1180 1134 745 893 994 950 743
0 0 0 0 0 0 0 0 0 0 0 0 0 0 0 0 0 0 0 0 0 0 669 955 864 1026 2436 3840 3610 3339 2861 3092 2045 2517 2166 1841 1451 1806 2325 1430 987 1120 1698 1242 976 706 680 545 484
0 0 0 0 0 0 0 0 0 0 0 0 0 0 0 0 0 0 0 0 0 49 406 399 925 769 3125 3949 3825 3835 3672 3330 3180 2364 2412 2727 2131 1891 2222 1422 1189 1425 1178 1174 917 1150 593 507 654
0 0 0 0 0 0 0 0 0 0 0 0 0 0 0 0 0 0 0 0 0 0 4 70 218 791 1294 1516 4202 3643 3546 3527 3747 3222 2552 3102 2867 2397 2160 2191 1728 1557 1160 1073 1130 968 1004 855 909
0 0 0 0 0 0 0 0 0 0 0 0 0 0 0 0 0 0 0 0 7 5 66 333 538 974 1269 1233 1778 3639 3061 3149 3456 3370 3911 2860 2949 3077 2827 2728 2457 2915 1651 1394 1309 1105 1757 1486 1623
0 0 0 0 0 0 0 0 0 0 0 0 0 0 0 0 0 0 6 85 52 1 20 384 703 1108 1454 1475 1516 1251 2528 2974 2815 3401 3502 3232 3479 3213 3585 3267 2731 2816 2841 2485 2326 1961 1555 2045 1332
0 0 0 0 0 0 0 0 0 0 0 0 0 0 0 0 0 8 38 63 30 29 101 45 349 581 1066 1364 1041 1090 2891 3095 2276 3166 3986 3938 3624 3450 3464 3624 3087 2750 2710 2058 2513 2562 2097 1586 1637
0 0 0 0 0 0 0 0 0 0 1 0 0 0 0 0 0 9 13 9 11 0 0 1 317 724 272 981 849 1597 1548 1315 2136 2346 2947 3331 3614 3382 3449 3392 3371 2893 2982 2142 2421 2308 2292 1748 1373
0 0 0 0 0 0 0 0 0 0 0 0 7 0 1 0 0 0 0 0 0 0 0 2 89 266 538 1041 1471 1008 822 670 1142 1555 1992 2706 3455 2898 3160 3215 3108 3432 3151 2967 2630 2595 2483 1978 1460
0 0 0 0 0 0 0 0 0 0 3 8 25 0 0 1 0 0 0 0 0 0 0 48 126 79 615 473 832 1357 1422 1150 1033 1149 1430 1598 2383 2905 2485 2898 3173 3145 3203 3070 2745 2794 2553 2172 1658
0 0 0 0 1 0 0 0 0 57 1 0 0 0 0 0 0 0 0 0 0 0 1 13 23 58 179 143 257 732 1036 1580 1304 1263 1134 1230 1437 1960 2305 2314 2641 3128 3270 3173 3020 2691 2504 2422 2077
0 7 17 5 25 6 7 16 1 10 0 0 0 0 0 0 0 0 0 0 0 6 30 23 1 30 73 108 153 766 1017 511 568 739 1039 1062 908 893 1242 1591 2021 2324 2836 2902 3223 2632 2918 2759 2567
10 8 7 5 2 29 0 0 0 9 16 8 0 0 0 0 0 0 0 0 2 12 59 65 72 104 100 177 211 542 281 911 896 1108 1044 913 1301 1894 1123 1415 2170 1082 0 864 2868 2704 2580 2302 2527
7 0 0 2 36 24 16 31 39 42 8 0 0 2 6 4 0 0 0 0 0 1 43 108 75 58 47 74 155 139 178 137 532 680 1079 1271 1442 1571 2071 2292 1932 1357 1049 1226 2717 2552 2275 1941 1467
28 14 12 8 19 40 20 3 95 5 8 2 2 4 4 1 0 1 0 0 0 4 5 90 71 60 55 42 112 117 119 188 242 606 484 693 451 1322 1782 2009 2339 2232 2116 2022 1790 1724 1078 827 593
30 45 35 102 38 74 110 12 48 91 8 58 0 31 5 13 0 0 0 1 1 0 2 12 142 45 33 47 62 91 146 283 309 323 304 105 22 0 0 58 1396 2085 1890 1468 378 471 849 873 785

GFSSGP_con_sbcape_105.txt.gz
CAPE
0 0 0 0 0 0 0 0 0 0 0 0 0 0 656 881 1367 760 916 1447 1577 2010 2296 2275 2190 2215 2105 1968 1807 1619 1561 1586 1559 1612 1623 1709 1834 1875 1729 1576 1316 1087 409 131 12 26 89 199 262
0 0 0 0 0 0 0 0 0 0 0 0 0 7 435 793 605 730 1070 1425 1556 1810 1859 2044 2236 2133 2135 2038 1738 1557 1618 1648 1561 1618 1654 1709 1693 1777 1711 1568 1300 713 92 5 0 42 115 274 357
0 0 0 0 0 0 0 0 11 0 0 0 0 4 40 559 494 278 953 1343 1376 1349 1671 2263 2373 2172 2126 2064 1738 1613 1666 1662 1625 1671 1728 1749 1644 1599 1536 1415 1106 470 1 0 0 85 369 390 313
0 0 0 0 0 0 0 0 3 1 0 0 0 6 91 511 787 471 879 1069 1083 989 1867 2431 2442 2337 2157 2071 1854 1676 1764 1754 1717 1766 1781 1742 1664 1540 1427 1311 969 575 16 0 0 191 432 526 417
0 0 0 0 0 0 0 0 0 1 0 0 0 86 181 495 474 357 897 859 781 1265 1750 2246 2413 2458 2449 2290 2002 1829 1811 1773 1765 1834 1859 1744 1597 1472 1384 1201 858 536 121 0 0 19 12 9 0
0 0 0 0 0 0 0 0 2 0 0 0 0 72 107 182 298 338 370 752 678 1709 1687 1919 2359 2388 2383 2388 2142 1917 1817 1803 1763 1797 1827 1758 1543 1396 1302 1160 862 571 114 37 0 0 0 0 0
0 0 0 0 0 0 0 0 4 0 0 0 0 21 1 0 63 182 348 526 1833 1729 1373 1583 1962 2297 2399 2281 2139 1978 1856 1833 1776 1671 1637 1618 1460 1297 1214 1075 899 560 154 66 23 0 0 0 0
0 0 0 0 0 0 0 0 0 3 0 0 0 0 0 0 0 323 287 1627 1727 1777 1282 1211 1525 1888 1889 2058 2230 2071 1971 1912 1793 1711 1645 1528 1390 1249 1176 860 870 697 395 240 158 79 1 0 0
0 0 0 0 0 0 0 0 0 0 0 0 0 0 0 0 0 0 29 304 1786 1860 1237 920 1093 1219 1355 1576 1962 2052 2123 2042 1851 1785 1666 1282 957 961 988 707 916 790 515 393 339 211 95 50 51
0 0 0 0 0 0 0 0 0 0 0 0 0 0 0 0 0 0 0 184 313 1597 1166 724 757 832 663 1491 1555 1528 1672 1683 1534 1473 1410 860 583 597 675 573 957 891 660 507 478 414 296 234 0
0 0 0 0 0 0 0 0 0 0 0 0 0 0 0 0 0 0 0 0 179 1253 1021 609 619 524 353 414 1395 1286 1311 1344 1291 1214 1180 793 574 637 617 264 498 407 631 252 328 277 167 25 0
0 0 0 0 0 0 0 0 0 0 0 0 0 0 0 0 0 0 0 0 0 1 835 364 498 474 273 222 934 764 943 1092 1207 1248 1175 972 626 310 467 232 172 193 248 90 50 42 16 3 0
0 0 0 0 0 0 0 0 0 0 0 0 0 0 0 0 0 0 0 0 0 25 864 781 518 457 420 546 692 515 383 569 557 827 1024 1179 757 550 332 254 99 121 95 30 0 0 0 0 0
0 0 0 0 0 0 0 0 0 0 0 0 0 0 0 0 0 0 0 0 0 663 487 1068 1147 1091 1232 1629 1339 970 506 412 358 394 487 813 936 485 552 196 148 135 66 27 0 0 0 0 9
0 0 0 0 0 0 0 0 0 0 0 0 0 0 0 0 0 0 0 0 0 40 513 460 750 1006 1101 232 1849 2327 1798 641 382 438 432 524 735 736 697 375 314 309 70 7 0 0 5 104 44
0 0 0 0 0 0 0 0 0 0 0 0 0 0 0 0 0 0 0 0 0 0 500 763 113 0 0 0 1199 2391 2296 2231 1160 613 548 694 600 1014 843 740 407 449 300 99 55 2 219 167 125
0 0 0 0 0 0 0 0 0 0 0 0 0 0 0 0 0 0 0 0 0 0 0 68 174 0 0 452 1725 2372 2402 2225 2366 1314 1120 975 867 826 1118 870 637 469 366 454 270 107 187 137 77
0 0 0 0 0 0 0 0 0 0 0 0 0 0 0 0 0 0 0 0 0 0 0 0 0 113 393 979 1840 2719 2552 2451 2270 2175 1711 1496 1042 957 1044 1045 833 645 610 435 469 248 93 103 108
0 0 0 0 0 0 0 0 0 0 0 0 0 0 0 0 0 0 0 0 0 0 0 0 0 15 102 185 47 2245 2601 2588 2501 2716 2343 1948 1617 1128 1202 1192 1040 806 724 707 510 483 313 243 238
0 0 0 0 0 0 0 0 0 0 0 0 0 0 0 0 0 0 0 0 0 0 0 0 0 0 0 16 248 410 551 1437 2273 2636 2641 2588 2139 1889 1461 1318 1335 877 1075 896 627 708 622 513 666
0 0 0 0 0 0 0 0 0 0 0 0 0 0 0 0 0 0 0 0 0 0 0 0 0 0 0 1 24 9 34 439 1038 1514 2084 2346 2574 2189 1993 1685 1494 1436 826 1396 1044 883 890 732 843
0 0 0 0 0 0 0 0 0 0 0 0 0 0 0 0 0 0 0 0 0 0 0 0 0 0 0 0 0 0 0 5 35 142 460 985 2224 2412 1970 2019 1924 1695 1470 1493 1818 1390 1195 894 822
0 0 0 0 0 0 0 0 0 0 0 0 0 0 0 0 0 0 0 0 0 0 0 0 0 0 0 0 40 56 30 0 0 0 0 2 146 773 2098 1848 1360 791 779 939 1403 1255 1642 1294 921
0 0 0 0 0 0 0 0 0 0 0 0 0 0 0 0 0 0 0 0 0 0 0 0 0 0 0 0 0 0 0 1 11 0 0 0 0 35 757 0 0 158 37 245 960 835 1393 1461 1292
0 0 0 0 0 0 0 0 0 0 5 1 0 0 0 0 0 0 0 0 0 0 0 0 0 0 0 0 0 0 0 0 0 16 5 0 0 0 0 421 565 184 36 488 813 613 624 1354 1206
0 0 0 0 0 0 0 0 0 0 0 0 0 0 0 0 0 0 0 0 0 0 0 0 0 0 0 0 0 0 0 0 2 0 0 0 0 30 63 153 798 364 124 94 204 0 0 78 687
2 10 0 0 0 0 0 0 0 0 0 0 0 0 0 0 0 0 0 0 0 0 0 0 0 0 0 0 0 0 14 4 0 0 0 0 0 0 28 79 114 601 894 118 105 2 0 105 210
0 0 2 0 1 0 0 0 2 1 2 0 0 0 0 0 0 0 0 0 0 0 0 0 0 0 0 0 0 0 0 0 1 0 15 0 0 0 0 0 0 36 12 13 80 22 22 13 235
0 0 0 0 4 0 0 0 0 4 0 0 0 0 0 0 0 0 0 0 0 0 0 0 0 0 0 0 0 0 0 0 0 66 32 0 0 0 0 0 0 0 0 0 0 0 0 13 581
0 0 19 0 0 0 1 0 0 1 0 0 0 0 0 0 0 0 0 0 0 0 0 0 0 0 0 0 0 0 0 0 0 0 0 8 0 0 0 0 0 0 0 0 0 12 1 358 51

GFSSGP_con_sbcape_108.txt.gz
CAPE
0 0 0 0 0 0 0 0 0 0 0 0 37 671 793 774 1058 691 754 921 1944 1905 1974 2067 2157 2043 1903 1738 1657 1584 1451 1480 1480 1547 1683 1658 1528 1514 1484 1469 1446 1177 563 113 0 34 129 206 120
0 0 0 0 0 0 0 0 0 0 0 0 306 472 468 560 811 1102 1254 1627 1785 1947 1829 1735 2110 1949 1870 1693 1558 1504 1500 1492 1483 1537 1667 1708 1659 1588 1453 1333 1151 528 120 0 0 84 232 273 238
0 0 0 0 0 0 0 0 0 0 0 0 0 36 230 377 1101 902 1129 1558 1759 1755 1697 1766 2073 1879 1847 1687 1558 1516 1553 1508 1541 1579 1596 1555 1603 1573 1473 1340 1012 240 0 0 5 111 239 311 258
0 0 0 0 0 0 0 0 0 0 0 0 1 27 368 618 495 947 1438 1433 1358 1500 1686 2226 2081 1944 1865 1713 1604 1589 1620 1561 1596 1629 1594 1512 1357 1395 1299 1157 854 416 0 0 26 238 357 280 197
0 0 0 0 0 0 0 0 0 0 0 0 58 103 456 564 848 1311 1208 927 1163 1482 1835 2122 2176 2040 1952 1777 1681 1665 1626 1530 1575 1650 1615 1561 1441 1338 1262 1082 824 421 71 3 17 85 310 352 117
0 0 0 0 0 0 0 0 0 0 0 0 128 102 101 823 854 905 983 657 1313 1387 1742 2018 2293 2141 1954 1846 1682 1643 1613 1549 1553 1575 1600 1536 1383 1308 1242 1048 851 549 222 111 30 70 31 0 0
0 0 0 0 0 0 0 0 0 0 0 0 6 24 2 9 768 777 795 598 1413 1424 1395 1768 2002 2147 2212 1958 1728 1630 1618 1587 1570 1514 1454 1394 1332 1258 1182 1004 851 606 250 159 102 46 6 0 0
0 0 0 0 0 0 0 0 0 0 0 0 0 0 0 0 14 373 689 1038 1416 1311 1131 1461 1650 1934 1869 1870 1977 1793 1725 1715 1596 1543 1508 1436 1334 1218 1129 800 794 670 321 206 140 76 26 0 0
0 0 0 0 0 0 0 0 0 0 0 0 0 0 0 0 0 707 1319 1522 1574 1287 993 1175 1456 1597 1568 1657 1933 1938 1963 1896 1702 1634 1577 1215 955 936 843 653 788 761 470 317 257 164 89 57 27
0 0 0 0 0 0 0 0 0 0 0 0 0 0 0 0 0 1 1161 1480 1610 1380 902 888 1132 1274 1435 1824 1690 1653 1769 1758 1534 1400 1337 969 696 624 652 583 895 928 654 443 402 335 237 189 0
0 0 0 0 0 0 0 0 0 0 0 0 0 0 0 0 0 0 39 1024 1713 1569 1042 673 804 1004 1181 1394 1458 1396 1636 1533 1400 1311 1235 847 568 534 603 376 462 426 578 171 250 213 137 33 0
0 0 0 0 0 0 0 0 0 0 0 0 0 0 0 0 0 0 0 0 17 1375 1122 670 480 547 643 1136 1284 1284 1428 1364 1286 1290 1146 770 501 321 393 284 126 203 132 86 49 55 33 8 0
0 0 0 0 0 0 0 0 0 0 0 0 0 0 0 0 0 0 0 0 0 435 875 363 323 391 349 697 946 975 1087 1266 1209 1190 1112 930 675 431 332 195 96 161 79 79 0 0 0 0 0
0 0 0 0 0 0 0 0 0 0 0 0 0 0 0 0 0 0 0 0 27 150 415 325 294 223 111 553 610 539 557 856 842 1013 1111 1079 838 657 370 258 168 95 59 76 13 0 0 0 0
0 0 0 0 0 0 0 0 0 0 0 0 0 0 0 0 0 0 0 0 0 388 650 525 540 532 959 1195 1032 710 416 324 424 545 759 1124 961 678 455 292 230 159 64 18 3 0 0 0 0
0 0 0 0 0 0 0 0 0 0 0 0 0 0 0 0 0 0 0 0 0 283 548 775 1170 616 993 394 8 1457 1376 490 383 302 375 431 789 929 520 430 368 277 154 65 33 1 0 5 23
0 0 0 0 0 0 0 0 0 0 0 0 0 0 0 0 0 0 0 0 0 70 379 91 88 503 190 0 34 1084 1808 1638 943 445 335 354 404 545 828 591 624 429 277 155 95 32 5 1 21
0 0 0 0 0 0 0 0 0 0 0 0 0 0 0 0 0 0 0 0 0 0 265 48 48 0 0 0 101 1232 1930 1617 1616 1475 953 624 627 582 441 757 900 487 392 349 313 280 110 26 101
0 0 0 0 0 0 0 0 0 0 0 0 0 0 0 0 0 0 0 0 0 0 0 0 0 0 0 0 0 296 1622 1684 1780 1912 1900 1466 1231 930 703 583 808 671 554 554 495 404 288 175 41
0 0 0 0 0 0 0 0 0 0 0 0 0 0 0 0 0 0 0 0 0 0 0 0 0 0 0 0 0 26 12 64 372 1021 1878 2147 1654 1574 1152 762 751 639 647 572 459 343 448 398 159
0 0 0 0 0 0 0 0 0 0 0 0 0 0 0 0 0 0 0 0 0 0 0 0 0 0 0 0 0 0 0 0 0 0 20 611 793 1388 1758 1450 889 756 689 867 600 304 367 428 272
0 0 0 0 0 0 0 0 0 0 0 0 0 0 0 0 0 0 0 0 0 0 0 0 0 0 0 0 0 0 0 0 0 0 0 0 0 196 653 898 1558 1051 989 928 749 681 362 350 347
0 0 0 0 0 0 0 0 0 0 0 0 0 0 0 0 0 0 0 0 0 0 0 0 0 0 0 0 0 0 0 0 0 0 0 0 0 0 0 199 467 1086 796 101 49 403 104 226 198
0 0 0 0 0 0 0 0 0 0 0 0 0 0 0 0 0 0 0 0 0 0 0 0 0 0 0 0 0 0 0 0 0 0 0 0 0 0 0 0 0 53 0 60 21 22 7 148 309
0 0 0 0 0 0 0 0 0 0 0 0 0 0 0 0 0 0 0 0 0 0 0 0 0 0 0 0 0 0 0 0 0 0 0 0 0 0 0 0 11 45 28 0 0 0 0 39 480
0 0 0 0 0 0 0 0 0 0 0 0 0 0 0 0 0 0 0 0 0 0 0 0 0 0 0 0 0 0 0 0 0 0 0 0 0 0 0 0 0 0 255 192 8 0 2 14 0
0 0 0 0 0 0 0 0 0 0 0 0 0 0 0 0 0 0 0 0 0 0 0 0 0 0 0 0 0 0 0 0 0 0 0 0 0 0 0 0 0 0 0 77 98 80 102 19 0
0 0 0 0 0 0 0 0 0 0 0 0 0 0 0 0 0 0 0 0 0 0 0 0 0 0 0 0 0 0 0 0 0 0 0 0 0 0 0 0 0 0 0 0 0 20 12 0 0
0 0 0 0 0 0 0 0 0 0 0 0 0 0 0 0 0 0 0 0 0 0 0 0 0 0 0 0 0 0 0 0 0 0 0 0 0 0 0 0 0 0 0 0 0 0 0 0 0
0 0 0 0 0 0 0 0 0 0 0 0 0 0 0 0 0 0 0 0 0 0 0 0 0 0 0 0 0 0 0 0 0 0 0 0 0 0 0 0 0 0 0 0 0 0 3 0 0

GFSSGP_con_sbcape_111.txt.gz
CAPE
0 0 0 0 0 0 0 0 0 0 0 10 96 404 520 433 586 306 458 923 1343 1470 1723 1556 1979 1874 1760 1683 1482 1355 1273 1324 1337 1326 1341 1417 1491 1540 1510 1457 1451 1092 496 49 2 117 272 243 123
0 0 0 0 0 0 0 0 0 0 0 178 185 316 453 486 1029 932 888 1656 1365 1540 1637 1720 2005 1864 1730 1609 1406 1312 1264 1264 1393 1401 1360 1333 1354 1308 1189 1372 1161 618 209 15 36 169 300 212 140
0 0 0 0 0 0 0 0 0 0 0 0 5 91 254 708 1029 874 1177 1658 1617 1491 1468 1726 2015 1800 1680 1575 1434 1336 1301 1270 1413 1494 1428 1289 1351 1353 1264 1193 980 337 66 20 124 289 362 364 299
0 0 0 0 0 0 0 0 0 0 0 0 3 407 467 565 830 1080 1614 1694 1497 1336 1323 2013 1964 1802 1654 1568 1501 1424 1390 1362 1430 1380 1344 1300 1266 1380 1297 1141 804 469 102 52 224 393 523 534 383
0 0 0 0 0 0 0 0 0 0 0 7 16 431 485 987 1351 1386 1522 1390 1278 1298 1337 1753 1902 1874 1709 1622 1567 1518 1458 1414 1470 1526 1313 1240 1342 1290 1205 1042 688 418 318 124 189 498 840 823 567
0 0 0 0 0 0 0 0 0 0 0 214 444 262 156 1095 1226 1180 1073 996 1187 1316 1546 1539 1905 1896 1695 1611 1594 1526 1407 1427 1476 1479 1447 1426 1336 1251 1164 1053 835 563 381 336 349 601 704 595 336
0 0 0 0 0 0 0 0 0 0 0 0 120 260 51 884 1028 865 683 937 1179 1296 1451 1506 1554 1741 1837 1636 1572 1539 1463 1401 1437 1400 1339 1293 1211 1202 1190 1045 947 741 456 398 383 387 283 205 120
0 0 0 0 0 0 0 0 0 0 0 0 0 13 18 445 811 788 504 931 965 1079 1152 1399 1519 1595 1487 1398 1714 1636 1582 1529 1457 1431 1386 1304 1236 1191 1158 872 866 854 538 410 367 251 194 140 86
0 0 0 0 0 0 0 0 0 0 0 0 0 0 0 5 545 515 849 1123 1091 946 828 1151 1396 1538 1370 1279 1447 1632 1785 1691 1565 1497 1459 1119 856 862 796 824 568 1010 721 478 389 305 214 140 98
0 0 0 0 0 0 0 0 0 0 0 0 0 0 0 212 548 896 1004 1122 1094 999 789 957 1145 1303 1338 1543 1453 1325 1354 1442 1301 1188 1113 854 654 550 594 696 934 1054 1066 747 567 480 405 314 3
0 0 0 0 0 0 0 0 0 0 0 0 0 0 0 0 57 1063 977 1111 1199 1088 793 797 953 1044 1147 1443 1540 1326 1272 1269 1241 1180 1036 840 668 500 670 454 552 570 761 436 356 264 201 72 14
0 0 0 0 0 0 0 0 0 0 0 0 0 0 0 0 0 0 343 864 1195 1267 953 650 741 853 949 1129 1258 1041 1145 1133 983 1169 1061 834 602 390 430 373 282 280 308 295 113 91 80 67 37
0 0 0 0 0 0 0 0 0 0 0 0 0 0 0 0 0 0 0 0 248 1298 1136 730 616 703 777 924 1111 1118 1179 1157 1085 1093 1095 868 551 361 360 335 264 212 237 203 136 27 31 9 1
0 0 0 0 0 0 0 0 0 0 0 0 0 0 0 0 0 0 0 0 0 123 922 640 524 540 556 882 842 872 1021 1106 1085 1038 1091 1038 692 570 423 453 332 254 212 180 160 14 1 0 0
0 0 0 0 0 0 0 0 0 0 0 0 0 0 0 0 0 0 0 0 0 0 1 443 337 293 192 395 691 540 621 681 813 927 967 1067 980 759 674 447 411 403 169 101 79 15 0 0 0
0 0 0 0 0 0 0 0 0 0 0 0 0 0 0 0 0 0 0 0 0 66 260 174 364 262 252 311 533 752 428 304 440 444 563 906 1193 1031 722 531 445 365 137 69 47 45 0 0 0
0 0 0 0 0 0 0 0 0 0 0 0 0 0 0 0 0 0 0 0 0 212 328 488 405 466 593 210 176 926 1643 847 427 328 295 327 512 903 941 656 538 363 136 98 104 58 21 16 0
0 0 0 0 0 0 0 0 0 0 0 0 0 0 0 0 0 0 0 0 0 228 201 152 383 490 363 0 22 180 734 1321 1307 1008 442 343 323 393 432 591 525 407 237 179 147 142 9 17 0
0 0 0 0 0 0 0 0 0 0 0 0 0 0 0 0 0 0 0 0 0 121 182 84 55 21 47 0 10 108 638 1243 1273 1491 1375 1271 728 563 368 381 515 503 379 392 348 299 180 42 0
0 0 0 0 0 0 0 0 0 0 0 0 0 0 0 0 0 0 0 0 0 0 0 0 0 0 19 17 0 0 9 75 98 160 131 567 523 591 926 529 455 456 473 504 510 289 240 195 60
0 0 0 0 0 0 0 0 0 0 0 0 0 0 0 0 0 0 0 0 0 0 0 0 0 0 0 0 0 0 0 0 0 0 0 6 0 0 395 556 754 580 413 711 701 551 268 342 166
0 0 0 0 0 0 0 0 0 0 0 0 0 0 0 0 0 0 0 0 0 0 0 0 0 0 0 0 0 0 0 0 0 0 0 0 0 4 0 0 79 734 713 802 848 615 456 301 472
0 0 0 0 0 0 0 0 0 0 0 0 0 0 0 0 0 0 0 0 0 0 0 0 0 0 0 0 0 0 0 0 0 0 0 0 0 0 0 0 0 0 122 791 899 703 462 400 273
0 0 0 0 0 0 0 0 0 0 0 0 0 0 0 0 0 0 0 0 0 0 0 0 0 0 0 0 0 0 0 0 0 0 0 0 0 0 0 0 0 0 0 0 86 4 94 171 46
0 0 0 0 0 0 0 0 0 0 0 0 0 0 0 0 0 0 0 0 0 0 0 0 0 0 0 0 0 0 0 0 0 0 0 0 0 0 0 0 0 0 0 0 0 0 0 0 0
0 0 0 0 0 0 0 0 0 0 0 0 0 0 0 0 0 0 0 0 0 0 0 0 0 0 0 0 0 0 0 0 0 0 0 0 0 0 0 0 0 0 0 0 0 1 0 0 0
0 0 0 0 0 0 0 0 0 0 0 0 0 0 0 0 0 0 0 0 0 0 0 0 0 0 0 0 0 0 0 0 0 0 0 0 0 0 0 0 0 0 0 0 0 0 2 17 44
1 0 0 0 0 0 0 0 0 0 0 0 0 0 0 0 0 0 0 0 0 0 0 0 0 0 0 0 0 0 0 0 0 0 0 0 0 0 0 0 0 0 0 0 0 0 0 0 0
0 0 0 0 0 0 0 0 0 0 0 0 0 0 0 0 0 0 0 0 0 0 0 0 0 0 0 0 0 0 0 0 0 0 0 0 0 0 0 0 0 0 0 0 0 0 0 0 0
0 0 0 0 0 0 0 0 0 0 0 0 0 0 0 0 0 0 0 0 0 0 0 0 0 0 0 0 0 0 0 0 0 0 0 0 0 0 0 0 0 0 0 0 0 0 0 0 0

GFSSGP_con_sbcape_114.txt.gz
CAPE
0 0 0 0 0 0 0 0 0 0 0 0 145 136 161 356 241 95 402 778 1235 1343 1471 1245 1850 1766 1786 1601 1486 1398 1348 1407 1474 1538 1538 1564 1595 1614 1582 1567 1469 1149 587 172 79 176 281 307 274
0 0 0 0 0 0 0 0 0 0 0 0 3 211 275 373 956 801 789 1323 1155 1388 1387 1346 1850 1756 1661 1515 1360 1316 1328 1314 1321 1399 1482 1552 1575 1526 1383 1492 1369 828 394 70 185 374 475 345 258
0 0 0 0 0 0 0 0 0 0 0 0 19 61 255 504 1074 739 820 1246 1265 1391 1398 1382 1851 1750 1648 1470 1338 1241 1276 1261 1299 1361 1392 1348 1422 1393 1387 1426 1320 628 197 77 215 451 697 677 506
0 0 0 0 0 0 0 0 0 0 0 0 10 393 354 587 983 906 1530 1412 1187 1240 1330 1801 1818 1717 1669 1406 1421 1242 1235 1330 1378 1352 1346 1306 1262 1322 1304 1291 1037 704 149 116 291 713 900 916 862
0 0 0 0 0 0 0 0 0 0 0 0 30 465 427 997 1295 1642 1600 1321 1125 1117 1304 1693 1818 1716 1717 1577 1483 1316 1213 1272 1401 1470 1448 1456 1461 1366 1279 1153 816 600 466 287 381 711 981 969 891
0 0 0 0 0 0 0 0 0 0 0 45 377 444 372 1230 1477 1589 1485 1133 1070 1064 1420 1489 1694 1680 1637 1655 1523 1329 1163 1167 1302 1448 1499 1503 1452 1357 1300 1155 878 699 625 615 702 964 1079 943 761
0 0 0 0 0 0 0 0 0 0 0 0 126 247 145 1136 1028 1311 1080 976 1033 1174 1245 1235 1355 1474 1606 1607 1499 1345 1229 1189 1244 1236 1278 1334 1301 1244 1214 1098 988 821 688 657 730 896 950 799 648
0 0 0 0 0 0 0 0 0 0 0 0 0 11 263 618 847 488 706 845 979 1165 1086 1111 1145 1268 1170 1248 1639 1489 1378 1345 1338 1332 1294 1265 1199 1201 1221 933 948 924 687 589 589 596 479 342 266
0 0 0 0 0 0 0 0 0 0 0 0 0 0 0 720 448 423 895 875 841 932 843 990 1012 1063 977 932 1299 1585 1506 1525 1482 1477 1405 1069 762 772 779 824 661 1080 940 641 499 392 254 194 174
0 0 0 0 0 0 0 0 0 0 0 0 0 0 489 757 577 594 802 838 842 840 743 863 992 1074 918 977 931 1026 1084 1238 1181 1085 1058 736 547 444 627 725 987 798 1111 922 604 486 399 352 70
0 0 0 0 0 0 0 0 0 0 0 0 0 0 0 280 678 642 710 755 675 667 651 807 883 1081 1106 1157 1079 1079 1055 1181 1005 895 798 713 529 534 755 445 580 697 682 628 358 311 250 186 76
0 0 0 0 0 0 0 0 0 0 0 0 0 0 0 0 39 388 644 744 734 713 585 664 778 981 972 1040 1302 1041 976 1102 872 1047 822 682 482 359 436 427 349 335 361 371 280 155 118 99 79
0 0 0 0 0 0 0 0 0 0 0 0 0 0 0 0 0 0 255 492 737 908 735 565 727 894 921 1060 1210 933 927 1034 918 905 941 807 512 390 379 401 369 286 238 267 208 121 86 64 31
0 0 0 0 0 0 0 0 0 0 0 0 0 0 0 0 0 0 0 0 214 906 952 640 662 790 896 952 1095 1025 896 1081 926 1009 896 732 541 422 337 404 397 319 250 263 238 150 39 26 4
0 0 0 0 0 0 0 0 0 0 0 0 0 0 0 0 0 0 0 0 0 14 666 707 565 604 768 749 866 823 900 946 1050 860 802 820 783 520 489 389 406 425 282 258 187 156 59 7 2
0 0 0 0 0 0 0 0 0 0 0 0 0 0 0 0 0 0 0 0 0 0 0 201 521 321 454 384 669 575 499 463 660 737 813 941 1014 922 656 612 587 519 320 209 168 176 110 8 1
0 0 0 0 0 0 0 0 0 0 0 0 0 0 0 0 0 0 0 0 0 0 23 69 221 211 241 195 292 583 452 335 366 411 406 461 793 1131 1103 856 756 456 285 178 211 181 163 239 6
0 0 0 0 0 0 0 0 0 0 0 0 0 0 0 0 0 0 0 0 0 0 79 156 188 191 162 83 182 420 946 1230 816 424 306 331 320 456 695 856 691 420 303 245 200 188 120 131 159
0 0 0 0 0 0 0 0 0 0 0 0 0 0 0 0 0 0 0 0 0 68 179 286 323 232 73 36 72 119 227 579 899 1125 1043 1030 705 390 285 342 475 425 540 501 358 398 266 156 4
0 0 0 0 0 0 0 0 0 0 0 0 0 0 0 0 0 0 0 0 0 117 228 208 338 139 281 85 0 0 80 48 113 75 111 0 0 122 546 537 444 443 523 489 496 362 461 403 54
0 0 0 0 0 0 0 0 0 0 0 0 0 0 0 0 0 0 0 0 0 5 52 48 100 86 39 0 0 0 0 0 0 0 0 0 0 0 55 53 250 419 352 567 696 583 459 758 186
0 0 0 0 0 0 0 0 0 0 0 0 0 0 0 0 0 0 0 0 0 0 0 0 0 0 0 0 0 0 0 0 0 0 0 0 0 0 0 0 0 3 216 428 508 779 757 592 680
0 0 0 0 0 0 0 0 0 0 0 0 0 0 0 0 0 0 0 0 0 0 0 0 0 0 0 0 0 0 0 0 0 0 0 0 0 0 0 0 0 0 0 0 323 539 724 595 647
0 0 0 0 0 0 0 0 0 0 0 0 0 0 0 0 0 0 0 0 0 0 0 0 0 0 0 0 0 0 0 0 0 0 0 0 0 0 0 0 0 0 0 0 0 0 72 160 233
0 0 0 0 0 0 0 0 0 0 0 0 0 0 0 0 0 0 0 0 0 0 0 0 0 0 0 0 0 0 0 0 0 0 0 0 0 0 0 0 0 0 0 0 0 0 0 0 10
0 0 0 0 0 0 0 0 0 0 0 0 0 0 0 0 0 0 0 0 0 0 0 0 0 0 0 0 0 0 0 0 0 0 0 0 0 0 0 0 0 0 0 0 0 0 0 2 1
0 0 0 0 0 0 0 0 0 0 0 0 0 0 0 0 0 0 0 0 0 0 0 0 0 0 0 0 0 0 0 0 0 0 0 0 0 0 0 0 0 0 0 0 0 0 0 0 13
0 0 0 0 0 0 0 0 0 0 0 0 0 0 0 0 0 0 0 0 0 0 0 0 0 0 0 0 0 0 0 0 0 0 0 0 0 0 0 0 0 0 0 0 0 0 0 0 0
0 0 0 0 0 0 0 0 0 0 0 0 0 0 0 0 0 0 0 0 0 0 0 0 0 0 0 0 0 0 0 0 0 0 0 0 0 0 0 0 0 0 0 0 0 0 0 0 0
0 0 0 0 0 0 0 0 0 0 0 0 0 0 0 0 0 0 0 0 0 0 0 0 0 0 0 0 0 0 0 0 0 0 0 0 0 0 0 0 0 0 0 0 0 0 0 0 0

GFSSGP_con_sbcape_117.txt.gz
CAPE
0 0 0 0 0 0 0 0 0 0 0 0 0 97 178 511 318 481 1075 1290 1247 1611 1683 1209 1822 1967 1917 1741 1736 1782 1800 1865 1905 1837 1715 1672 1721 1736 1707 1699 1645 1231 650 198 193 243 354 362 465
0 0 0 0 0 0 2 0 0 0 0 0 0 500 626 790 1142 1252 1125 1394 1310 1629 1440 1146 1776 1926 1854 1669 1521 1520 1647 1729 1724 1700 1682 1682 1653 1622 1491 1501 1310 812 448 101 246 361 457 389 456
0 0 0 0 0 0 4 0 0 0 0 0 0 320 607 604 1314 923 908 1429 1383 1625 1370 1384 1828 1837 1776 1484 1457 1424 1436 1493 1578 1612 1648 1644 1606 1550 1491 1476 1407 744 241 153 346 560 680 495 394
0 0 0 0 0 0 0 0 0 0 0 0 1 542 758 1034 986 1023 1448 1386 1378 1511 1295 1727 1836 1819 1717 1600 1506 1392 1348 1401 1508 1571 1584 1565 1518 1472 1479 1461 1332 818 216 234 438 850 871 849 636
0 0 0 0 0 0 0 0 0 0 0 0 305 614 866 1417 1683 1914 1617 1378 1272 1499 1263 1461 1794 1795 1707 1580 1427 1362 1340 1324 1417 1489 1484 1460 1407 1354 1395 1339 969 762 601 439 512 831 1132 1120 1045
0 0 0 0 0 0 0 0 0 0 0 0 140 837 914 1709 2027 2015 1633 1432 1237 1539 1449 1161 1676 1726 1624 1595 1435 1271 1222 1283 1340 1346 1363 1422 1356 1285 1253 1183 866 694 634 632 649 827 929 935 842
0 0 0 0 0 0 0 0 0 0 0 0 417 754 608 1754 1921 1977 1739 1461 1396 1490 1541 1198 988 1348 1686 1590 1442 1246 1175 1245 1346 1383 1428 1493 1456 1375 1320 1172 834 611 572 521 586 700 814 746 683
0 0 0 0 0 0 0 0 0 0 0 0 76 582 516 1480 1992 1867 1681 1411 1340 1474 1384 1188 1020 673 679 992 1576 1374 1269 1249 1249 1302 1365 1366 1335 1240 1098 888 810 510 367 317 377 415 432 408 370
0 0 0 0 0 0 0 0 0 0 0 0 0 0 0 1687 1558 1632 1540 1329 1297 1340 1442 1220 777 827 620 619 1049 1356 1264 1357 1324 1217 1310 820 186 379 446 419 594 751 622 364 292 270 249 241 245
0 0 0 0 0 0 0 0 0 0 0 0 0 564 1187 1396 1356 1349 1216 1117 1047 1185 1347 1317 1051 909 733 471 877 881 762 704 674 662 823 518 533 506 308 467 844 685 782 796 535 416 371 191 0
0 0 0 0 0 0 0 0 0 0 0 0 0 413 1508 1532 1257 992 839 663 669 909 1236 1319 1482 1325 894 545 937 1023 952 1128 1197 1133 1208 1070 873 826 693 635 598 678 687 370 421 342 204 75 28
0 0 0 0 0 0 0 0 0 0 0 0 0 0 1055 1600 1636 1256 1033 914 885 956 1163 1374 1569 1685 1433 1013 1056 1052 1017 1272 1238 1180 1375 1227 1117 1036 994 963 854 893 588 510 465 274 290 282 205
0 0 0 0 0 0 0 0 0 0 0 0 0 0 0 882 1504 1504 1489 1318 1128 1025 1094 1330 1644 1799 1788 1872 1482 1438 1351 1397 1380 1360 1372 1347 1108 1076 1021 1082 1131 1096 1004 871 755 558 448 304 234
0 0 0 0 0 0 0 0 0 0 0 0 0 0 0 0 0 117 199 1606 1713 1626 1315 1248 1592 1907 1932 1921 2057 1836 1827 1621 1625 1547 1276 1098 1300 1468 1200 1237 1159 1143 1158 1142 1113 994 885 638 436
0 0 0 0 0 0 0 0 0 0 0 0 0 0 0 0 0 0 0 12 1402 1937 2116 1846 1522 1786 2039 1968 2081 1882 1802 1685 1655 1520 1254 1137 1077 1382 1625 1537 1493 1432 1435 1408 1336 1236 1130 925 765
0 0 0 0 0 0 0 0 0 0 0 0 0 0 0 0 0 0 0 0 0 95 1439 2113 1625 1574 1813 1875 1967 1851 1723 1748 1677 1451 1348 1333 1467 1564 1892 1784 1662 1595 1485 1336 1304 1260 1160 1126 1023
0 0 0 0 0 0 0 0 0 0 0 0 0 0 0 0 0 0 0 0 0 0 0 702 1868 1816 1881 1835 1681 1803 1799 1769 1659 1740 1795 1745 1822 1789 2112 1852 1871 2008 1726 1563 1352 1402 1247 1256 1189
0 0 0 0 0 0 0 0 0 0 0 0 0 0 0 0 0 0 0 0 0 0 0 203 766 1582 1764 1656 1674 1759 1693 1684 1576 1456 1466 1468 1421 1372 1804 1912 1982 1847 1710 1720 1708 1591 1514 1256 1236
0 0 0 0 0 0 0 0 0 0 0 0 0 0 0 0 0 0 0 0 0 0 0 233 1049 1385 1410 1339 1552 1726 1735 1844 1969 2018 1991 1870 1889 1574 1587 1652 1692 1737 1708 1775 1750 1631 1499 1555 1418
0 0 0 0 0 0 0 0 0 0 0 0 0 0 0 0 0 0 0 0 0 0 190 668 1357 1458 1229 1257 1394 1160 1242 1419 1624 1553 888 564 532 775 914 1062 906 991 1012 1460 1593 1459 1628 1473 1567
0 0 0 0 0 0 0 0 0 0 0 0 0 0 0 0 0 0 0 0 0 0 356 915 1488 1536 1414 1088 364 359 372 295 69 266 83 96 146 265 422 393 487 708 890 726 1124 1119 911 1290 1252
0 0 0 0 0 0 0 0 0 0 0 0 0 0 0 0 0 0 0 0 0 0 228 910 1221 1392 860 451 437 559 476 177 6 15 28 57 130 191 294 325 456 597 500 817 749 621 929 1111 1017
0 0 0 0 0 0 0 0 0 0 0 0 0 0 0 0 0 0 0 0 0 0 74 467 623 671 578 515 465 344 166 14 15 16 61 119 222 254 198 384 445 506 417 649 790 846 916 993 1201
0 0 0 0 0 0 0 0 0 0 0 0 0 0 0 0 0 0 0 0 0 0 0 216 336 268 224 135 126 266 252 109 22 20 52 64 136 239 258 191 257 240 109 135 100 283 645 642 433
0 0 0 0 0 0 0 0 0 0 0 0 0 0 0 0 0 0 0 0 0 0 0 68 44 12 10 21 46 99 244 176 210 73 59 84 101 127 200 151 99 15 0 0 0 0 11 145 235
0 0 0 0 0 0 0 0 0 0 0 0 0 0 0 0 0 0 0 0 0 0 0 0 0 0 36 41 53 50 47 2 2 92 28 25 38 95 205 95 26 0 0 0 0 0 0 37 72
0 0 0 0 0 0 0 0 0 0 0 0 0 0 0 0 0 0 0 0 0 0 0 0 0 2 21 19 28 10 3 0 5 66 194 77 192 53 172 99 38 0 0 0 0 0 0 25 65
0 0 0 0 0 0 0 0 0 0 0 0 0 0 0 0 0 0 0 0 0 0 0 0 0 0 0 0 0 0 0 0 0 35 113 91 133 176 73 113 52 1 0 0 0 0 12 33 13
0 0 0 0 0 7 5 0 0 0 0 0 0 0 0 0 0 0 0 0 0 0 0 0 0 0 0 0 0 0 0 0 0 0 0 5 25 77 110 106 41 15 0 0 3 0 0 1 11
0 0 14 75 16 0 8 2 0 0 0 0 0 0 0 0 0 0 0 0 0 0 0 0 0 0 0 0 0 0 0 0 0 0 0 0 0 0 0 1 2 14 17 23 29 1 0 0 0

GFSSGP_con_sbcape_123.txt.gz
CAPE
0 0 0 0 0 0 0 0 65 21 0 0 0 11 453 144 1171 1917 1890 459 684 1727 1969 1553 2333 2362 2450 2634 2393 2037 1755 1575 1647 1725 1752 1812 1855 1894 1921 2027 1791 1086 716 666 418 343 341 166 145
0 0 0 0 0 0 0 27 69 20 2 0 0 158 305 1336 1686 1398 1016 496 1016 1705 1788 1480 2200 2381 2524 2562 2332 2013 1837 1808 1795 1779 1838 1873 1912 1830 1680 1759 1418 878 311 228 248 321 428 374 252
0 0 0 0 0 0 46 39 87 35 0 0 16 560 693 1490 1533 1678 1104 806 1388 1527 1416 1863 2224 2245 2317 2338 2272 2142 2025 1930 1834 1855 1903 1915 1874 1804 1790 1613 1108 634 144 86 206 400 341 410 450
0 0 0 0 0 0 0 37 66 30 0 0 0 532 1309 1239 898 1118 851 822 1126 1130 1225 1720 2093 2089 2181 2161 2219 2160 2063 1972 1932 1937 1902 1870 1717 1683 1672 1271 911 518 110 161 374 536 438 345 392
0 0 0 0 0 0 25 73 28 4 0 0 0 412 1513 1782 1484 1063 785 799 902 916 1585 1228 2033 1986 2049 2024 2019 2107 2066 1958 1930 1946 1884 1786 1669 1583 1464 1072 906 482 120 242 539 669 548 469 421
0 0 0 0 0 0 72 80 37 5 5 0 6 237 1477 2039 1450 1253 819 726 815 1087 1722 995 1838 1904 1818 1934 1946 1907 1858 1851 1853 1827 1807 1735 1582 1451 1228 972 817 490 215 363 571 733 674 614 551
0 0 0 0 0 31 31 17 45 7 2 0 1 166 1899 1983 1635 1476 1073 852 1009 1198 1377 929 748 1322 1697 1680 1620 1612 1595 1629 1646 1620 1627 1593 1478 1386 1162 908 678 415 256 331 531 693 676 569 483
0 0 0 0 0 10 81 15 38 2 7 2 19 282 1838 2172 1912 1717 1226 1004 1149 1090 1293 940 605 522 450 468 1527 1444 1369 1447 1433 1460 1477 1425 1324 1101 1029 1074 718 340 272 252 430 551 568 525 569
0 0 0 0 0 1 5 7 0 0 0 0 0 506 2019 2533 2066 1847 1485 1239 1184 926 1210 830 580 462 361 284 626 1168 1016 1178 1303 1184 1352 785 24 182 746 309 988 754 391 449 518 608 662 683 549
0 0 0 0 0 0 0 0 0 0 0 0 0 168 2146 2407 2004 1758 1630 1347 1137 957 937 780 612 633 482 354 774 244 112 89 50 26 319 28 12 500 81 599 1012 825 643 606 630 600 469 173 0
0 0 1 6 0 0 0 1 0 0 0 0 3 88 1274 1904 1778 1399 1325 1143 1102 1042 934 866 898 1404 605 444 1031 372 350 149 97 91 798 431 24 52 9 205 303 142 437 92 159 76 24 0 0
29 2 0 1 14 0 0 0 0 0 0 0 0 2 630 1475 1649 1341 1182 1068 1100 1046 1024 1123 1113 1509 1693 715 864 700 650 655 653 593 1510 1287 582 957 357 92 194 478 177 300 225 180 250 117 81
67 20 1 8 6 1 0 0 0 0 0 0 0 0 227 1092 1265 1254 977 964 921 924 1014 1156 1617 2166 2617 1987 990 1125 1215 967 1175 1271 1573 1604 1406 2049 1367 1323 783 705 679 689 837 675 838 616 654
145 52 22 4 4 0 0 0 0 0 0 0 0 0 0 975 1220 1219 1191 1111 1226 1355 1507 1473 1759 3263 2384 2606 3043 1855 1743 1553 1313 1390 1493 1980 1927 2972 1541 1708 1476 1355 1056 931 944 1238 1370 1477 1526
145 15 4 0 0 2 20 0 0 0 0 0 0 0 0 0 650 1291 1389 1600 1651 1748 1837 1964 2213 3007 3584 2945 2591 2352 1775 1557 1528 1469 2182 2185 2591 2852 2689 1429 1370 1137 1687 1422 1422 1414 1515 1301 1294
149 24 4 0 18 21 0 0 0 1 3 0 0 0 0 0 0 15 143 1677 1974 1683 1896 2228 1821 2341 3326 3699 3031 2469 2116 2164 1956 2319 1905 2090 2261 2357 2742 1766 1692 1974 2485 2019 1935 1832 1665 1636 1621
238 38 16 10 50 53 8 0 0 0 0 0 0 0 0 0 0 0 0 0 4 173 626 1230 2071 1577 3177 4075 3309 3359 3860 2684 2699 3041 2643 2436 2052 2049 2154 1879 2452 3210 2073 1809 1719 1750 2176 2054 1883
104 117 45 23 123 60 1 0 0 0 0 0 0 0 0 0 0 0 0 0 0 0 43 946 1641 2994 3727 3236 3323 2854 2618 3145 2703 3555 2479 2005 2055 1981 2251 2265 2425 2456 2376 1626 1547 2805 1766 2067 1768
108 8 53 26 26 0 0 0 0 0 0 0 0 0 0 0 0 0 0 0 0 0 313 989 1057 3465 2543 1999 2105 2121 1874 2081 2159 2137 2704 2011 2140 2142 3199 2600 2937 2605 2475 2313 2168 2176 2858 1724 1634
14 25 8 0 0 0 0 0 0 0 0 0 0 0 0 0 0 0 0 0 0 4 254 784 1319 2336 2831 1933 2534 1453 1546 1271 1477 1830 2811 2128 2193 2728 2790 2859 2452 2979 1515 2190 1725 1911 1344 795 808
0 7 1 0 0 0 0 0 0 0 0 0 0 0 0 0 0 0 0 0 0 0 221 396 1503 2716 2992 2905 2124 2187 2318 2610 1866 2564 2839 2771 2494 2228 2664 2299 1722 888 845 138 1877 976 1199 606 560
0 0 1 0 3 0 0 0 0 0 0 0 0 0 0 0 2 0 0 0 0 0 0 7 941 2426 2770 3431 2446 3822 2286 1674 1424 2094 2817 2990 2130 1737 1113 519 371 665 341 491 338 275 735 557 321
0 4 0 13 19 19 2 0 0 0 0 0 0 0 0 0 0 2 0 0 0 0 0 45 1050 2243 2920 3509 3687 2846 3147 1198 1725 2115 3425 2348 1514 431 160 318 424 510 286 470 317 282 845 373 291
0 15 3 5 25 3 1 0 0 0 0 0 0 0 0 0 0 0 0 2 8 3 0 21 600 1670 2148 2553 2889 3097 3899 3267 1566 1901 1116 467 300 224 391 161 433 401 345 139 95 473 484 821 443
0 45 35 17 2 0 1 8 0 9 0 0 0 0 0 0 0 0 0 1 11 18 62 88 373 1198 1784 2291 2148 2316 2814 3561 2170 1816 587 466 130 104 863 706 751 297 481 112 454 605 485 347 218
1 9 12 0 0 1 4 13 3 38 0 0 2 0 0 0 0 0 0 22 0 77 144 164 336 955 1360 1576 1734 1990 2094 1791 1051 932 312 75 45 187 1739 743 532 360 212 525 693 113 41 384 133
24 1 1 32 70 63 13 72 48 0 0 0 0 0 0 0 0 3 31 134 291 362 413 381 497 774 1021 1251 1649 1651 1321 1191 476 748 325 88 256 17 119 480 660 446 557 622 873 102 521 389 417
9 3 32 9 43 44 17 23 38 0 1 0 13 7 0 0 0 0 0 36 119 226 224 223 277 288 233 226 248 259 272 202 236 282 365 419 467 193 208 151 719 746 697 827 1032 306 388 587 216
8 19 5 55 81 123 103 79 175 45 20 53 31 12 0 0 0 0 0 0 0 0 2 7 6 0 0 2 8 7 16 16 33 77 109 128 221 345 384 382 298 356 967 1193 1214 1103 736 602 583
32 37 23 62 64 54 127 112 72 95 84 115 28 3 1 0 0 0 0 0 0 0 0 0 0 0 0 0 0 0 0 1 7 42 55 90 142 175 199 194 202 215 339 902 1109 803 658 671 567